GFSNW_sfc_dewp_060.txt.gz
Dewpoint
41 42 42 44 45 46 44 41 32 45 46 35 34 30 32 28 24 30 29 31 30 25 25 22 25 27 29 27 35 27 29 28 24 22 25 27 24 26 27 25 23 28 26 22
42 42 43 45 45 45 43 36 36 45 43 30 30 34 30 27 24 28 29 28 31 29 24 17 25 27 31 28 27 37 36 28 23 24 24 25 23 24 26 30 29 26 25 24
42 43 44 45 45 45 43 36 30 37 40 37 31 29 28 27 29 26 30 30 30 28 25 26 25 24 27 28 25 43 42 34 27 24 26 26 25 24 24 27 25 25 27 25
43 43 44 45 45 45 43 37 31 35 30 32 31 30 28 27 25 28 29 29 29 28 25 24 23 26 28 29 32 39 38 32 35 35 33 30 26 25 25 24 26 24 24 27
43 44 44 44 44 45 41 32 34 38 35 33 33 32 28 26 26 27 27 27 29 28 27 25 23 24 24 25 31 32 38 31 34 30 34 32 30 25 25 25 26 27 27 27
43 44 43 44 44 44 40 40 40 39 36 34 32 31 29 27 28 28 27 28 27 27 27 28 28 29 29 29 29 32 35 33 31 29 33 31 26 28 27 26 27 27 25 28
44 43 43 44 45 44 43 42 40 35 32 33 32 30 30 28 28 27 30 29 27 30 32 32 32 31 29 29 29 33 35 34 33 30 29 25 30 29 31 29 28 29 29 30
44 45 45 45 45 45 43 43 40 37 30 35 32 31 30 29 30 29 29 29 31 33 32 27 25 25 26 30 35 36 40 35 32 27 26 27 26 29 30 32 30 29 28 28
44 45 45 45 45 46 44 43 45 39 33 32 33 31 32 30 29 29 30 32 34 32 30 28 26 19 21 24 30 33 38 36 30 32 25 21 25 35 38 38 26 34 34 32
44 44 45 45 46 46 45 43 45 42 35 35 36 31 34 34 33 30 31 32 31 32 29 29 27 25 24 21 26 29 32 33 30 30 27 28 33 37 39 30 25 40 40 39
44 44 44 45 46 46 45 42 44 41 34 38 37 36 35 34 32 29 32 32 30 29 25 26 27 23 24 23 26 30 29 30 27 30 28 23 35 36 34 36 40 39 39 41
44 44 44 43 43 46 46 38 45 44 39 39 41 41 39 35 34 31 34 31 30 31 27 27 27 23 21 26 23 31 24 29 28 29 29 34 37 36 39 42 41 41 39 39
45 45 45 44 44 44 44 41 42 40 35 38 38 37 39 42 38 36 33 34 33 33 33 30 29 23 26 21 23 25 28 32 29 29 28 33 33 34 36 38 40 38 38 39
45 45 45 45 45 44 44 41 42 40 38 33 36 40 40 41 45 44 41 38 41 39 38 32 29 27 31 25 26 25 26 32 30 30 35 37 37 39 41 39 41 37 35 39
46 45 45 46 45 45 44 43 42 42 38 31 32 39 38 38 41 40 43 43 39 39 35 30 31 31 32 30 31 29 36 34 31 29 38 38 38 39 38 39 39 37 37 39
45 46 46 46 46 45 41 36 42 44 44 37 29 37 40 38 38 38 40 42 41 39 36 34 35 37 34 32 26 34 34 35 36 36 36 37 38 39 35 34 36 34 32 30
45 46 46 46 46 42 38 34 40 43 44 36 31 33 40 40 41 40 40 42 42 41 38 36 34 35 38 33 30 30 31 30 32 36 36 37 38 36 33 33 33 31 27 26
45 45 46 46 43 43 41 42 43 42 39 37 30 32 36 41 37 36 41 38 40 39 37 35 33 36 36 32 27 29 30 29 32 32 34 35 36 33 30 30 29 26 25 24
46 46 44 42 39 38 41 43 42 42 37 29 30 29 30 40 36 38 36 38 32 37 32 31 34 32 27 24 24 26 26 27 29 31 32 34 34 30 28 27 26 25 24 23
43 41 36 32 40 43 42 39 36 35 35 37 32 33 31 36 33 33 34 32 29 27 30 30 25 22 24 24 23 25 25 28 29 29 29 28 29 29 25 24 24 24 23 22
40 37 36 41 42 39 36 31 30 32 30 33 32 32 33 36 28 31 31 30 31 27 28 27 23 18 21 23 21 23 25 25 25 27 27 25 26 25 25 23 22 21 21 20
41 41 41 38 33 30 28 27 29 30 29 31 32 32 34 34 31 30 33 29 31 24 27 21 14 20 21 21 21 22 24 24 23 24 23 24 23 23 23 21 20 19 19 19
35 30 24 24 22 16 18 17 20 22 27 29 32 32 32 32 32 31 31 28 22 26 18 13 15 20 19 21 21 20 22 23 22 22 22 21 21 21 20 19 19 20 19 19
25 19 10 11 7 13 14 14 15 24 27 28 32 32 31 31 28 28 22 19 18 8 6 9 15 19 20 21 21 19 20 20 20 20 20 19 18 18 19 19 19 18 16 17
20 16 8 12 18 20 20 21 22 25 28 29 30 24 26 18 14 18 17 10 8 10 5 12 16 18 18 18 20 20 20 19 19 19 18 18 17 17 17 18 18 17 16 16
18 16 11 12 10 13 13 16 17 25 25 25 26 18 14 12 14 9 8 8 5 6 11 16 17 17 18 18 18 19 19 19 19 19 19 18 17 16 16 17 16 15 15 14
15 14 15 11 10 10 14 17 20 25 24 18 21 13 15 20 10 6 10 2 6 10 13 16 17 16 16 17 17 18 18 17 17 17 18 18 18 18 15 13 14 15 15 14

GFSNW_sfc_dewp_063.txt.gz
Dewpoint
42 41 41 41 42 44 41 39 31 44 47 34 35 31 31 29 24 28 28 29 29 27 24 22 22 25 27 28 25 29 29 30 25 24 25 26 25 26 28 26 25 29 28 23
42 41 40 41 43 44 41 36 35 44 44 28 29 34 31 28 25 26 28 27 30 29 26 21 25 25 28 29 25 25 38 29 24 23 25 26 24 25 28 31 30 26 27 24
42 41 40 41 42 43 42 36 30 36 39 37 31 31 30 27 29 27 26 29 29 27 26 26 23 22 25 31 29 40 41 35 28 22 27 31 26 25 25 27 28 26 27 25
40 40 40 41 43 44 41 36 31 35 28 29 33 31 29 26 25 27 28 26 27 26 23 24 22 22 24 24 35 35 39 32 35 34 32 32 31 29 27 23 25 25 25 25
41 40 41 43 44 44 39 32 34 36 32 34 31 33 28 26 26 27 26 27 28 29 26 25 22 25 24 24 28 29 31 33 34 30 32 30 29 29 27 25 26 26 26 26
40 40 42 43 44 43 38 39 39 36 29 31 32 32 29 27 28 29 27 28 28 27 27 29 29 30 30 29 28 28 29 34 31 25 32 29 28 28 27 28 28 28 27 29
42 42 43 43 44 43 41 40 40 34 28 31 30 31 31 29 28 28 29 29 29 29 32 33 33 32 31 31 30 30 28 34 33 29 29 19 29 32 29 30 29 30 29 31
43 43 43 43 43 43 42 42 40 35 29 29 33 32 31 30 31 30 30 31 34 34 32 30 28 25 26 29 30 30 32 30 33 28 25 24 21 29 33 33 29 38 37 38
43 43 43 43 44 44 43 42 43 40 31 28 30 33 32 29 31 32 33 36 37 34 33 30 24 22 20 22 31 34 32 34 34 31 27 22 27 33 37 38 27 38 38 37
44 44 44 44 44 45 43 42 43 39 33 34 33 31 34 33 31 31 32 33 33 35 32 28 27 25 25 21 27 27 31 33 31 31 29 28 31 35 38 24 26 38 40 39
44 44 45 45 45 45 44 42 44 40 34 36 37 36 36 34 33 31 33 34 34 33 29 28 27 27 26 24 25 30 30 29 30 31 30 24 33 36 31 35 38 39 40 39
44 44 43 43 43 45 45 40 44 43 38 37 42 41 40 36 34 34 35 33 31 32 30 30 30 28 28 26 22 31 25 32 32 32 32 34 37 37 38 40 40 40 40 39
44 44 44 44 43 45 45 40 43 42 37 36 38 38 41 42 40 39 34 35 34 34 34 33 32 27 29 27 26 25 28 33 32 31 28 33 35 38 41 39 41 40 37 38
45 45 45 44 43 44 42 41 42 41 38 33 35 40 40 42 43 41 40 39 41 39 40 35 32 30 31 29 27 28 27 32 31 31 32 36 38 40 38 38 38 36 35 34
45 45 45 45 44 44 43 43 42 43 39 33 35 38 38 40 42 41 42 40 39 40 37 34 33 34 35 33 33 31 36 34 33 31 36 35 37 39 36 36 35 33 32 31
45 45 46 45 44 43 41 35 42 43 43 36 32 38 37 39 42 41 41 40 40 39 36 37 37 37 36 33 30 34 34 34 33 34 35 36 38 38 34 34 34 31 28 26
45 46 45 45 44 43 38 35 40 43 44 36 32 33 40 38 39 40 40 42 41 40 38 36 36 38 38 34 29 31 31 30 30 33 34 36 36 35 32 31 31 30 27 25
45 45 45 46 44 43 40 43 43 43 40 38 32 32 36 39 36 36 41 39 40 40 38 37 36 38 38 31 28 27 27 27 30 29 31 32 34 31 29 28 28 27 27 27
46 46 45 41 38 37 41 43 43 44 39 31 31 31 29 40 37 38 37 39 33 38 34 34 37 34 31 24 24 25 25 25 27 28 29 30 31 27 26 25 27 25 24 23
43 41 37 32 37 44 43 40 35 36 36 37 30 35 32 37 35 33 34 34 32 31 34 33 28 21 23 23 23 23 23 25 26 25 25 24 25 25 24 23 24 24 22 22
40 37 35 41 43 40 36 32 29 30 29 33 33 33 33 34 32 32 34 32 32 28 29 31 24 18 20 22 20 21 23 23 23 25 25 25 24 24 23 21 22 21 20 19
41 39 39 36 31 31 27 28 29 29 28 32 32 33 35 34 35 34 33 31 31 25 27 22 14 18 19 20 19 19 21 21 21 22 21 22 21 21 20 19 18 19 18 18
33 28 24 23 19 14 16 19 21 22 26 29 32 32 33 34 33 33 32 27 22 24 17 12 15 18 18 19 18 19 20 20 19 20 20 19 19 20 19 17 19 18 16 17
23 20 11 11 11 15 16 16 18 25 27 27 33 30 29 28 27 26 21 20 20 12 9 8 15 18 19 20 21 18 18 19 18 19 18 18 17 17 18 18 18 16 14 15
19 16 10 11 17 18 20 21 23 25 27 30 28 23 25 19 17 19 18 12 8 10 8 12 16 18 18 18 19 19 19 18 18 18 17 17 16 16 15 16 17 16 15 15
17 14 12 14 13 14 15 18 20 25 25 27 25 19 14 13 13 9 9 8 6 8 13 16 17 16 17 17 18 18 19 19 18 18 18 17 16 15 15 16 15 15 14 13
15 13 14 12 13 13 16 18 20 25 24 18 19 13 15 16 8 6 10 6 9 12 15 16 17 16 16 17 17 17 17 17 17 18 18 17 17 16 14 12 14 14 13 13

GFSNW_sfc_dewp_066.txt.gz
Dewpoint
41 40 42 43 41 42 41 37 30 43 47 34 34 30 26 32 23 23 23 27 27 27 25 22 24 30 27 29 30 25 27 28 24 23 24 23 22 24 25 24 24 26 28 23
41 41 41 42 42 42 42 33 31 43 44 29 29 31 28 29 26 23 22 24 28 27 25 21 20 32 31 27 28 30 34 25 20 20 23 25 24 24 24 25 25 25 29 23
40 40 41 43 42 43 43 36 31 34 39 35 30 27 25 27 28 25 24 25 28 26 25 24 22 21 28 32 32 39 38 32 23 16 18 26 24 23 23 26 26 24 23 22
40 40 41 43 43 43 43 37 32 28 30 30 30 29 26 28 25 27 25 24 24 24 23 23 22 23 21 27 32 29 33 35 34 32 32 31 30 29 26 22 23 24 23 23
39 40 41 42 42 43 39 33 33 35 29 35 31 28 28 25 23 25 23 25 24 27 25 24 22 24 24 23 28 27 30 33 31 26 28 29 28 28 28 27 26 25 25 25
39 41 41 42 42 43 39 39 38 37 27 27 27 30 27 29 30 27 25 27 28 29 29 30 29 30 30 29 28 27 27 30 28 23 26 23 25 29 28 27 27 27 27 28
40 41 41 42 42 43 42 40 38 32 26 26 23 23 28 31 30 29 28 28 30 31 33 33 32 31 30 30 29 29 25 33 29 27 28 20 29 30 28 28 30 29 30 34
43 43 42 42 42 43 44 43 39 34 28 24 23 24 25 27 33 30 30 31 35 38 36 31 26 28 28 28 29 28 30 29 33 24 22 22 19 28 28 26 32 32 31 34
45 44 43 42 42 43 44 41 42 38 33 25 23 24 25 28 28 31 35 39 41 39 33 29 23 22 20 22 30 30 28 30 30 31 22 16 22 33 35 36 22 28 33 33
45 44 45 43 43 43 42 41 43 39 32 33 28 25 26 30 33 29 33 37 37 39 32 29 25 22 24 21 28 30 28 29 27 28 27 23 26 33 37 22 27 33 32 32
43 44 45 44 43 43 42 41 43 40 35 34 35 32 29 31 35 32 35 36 36 36 31 28 26 27 23 22 25 28 27 26 28 27 26 26 34 30 26 35 35 38 38 39
44 44 44 44 44 44 44 39 44 43 39 36 39 37 36 33 34 35 37 29 32 34 30 30 29 27 33 24 22 26 27 27 29 27 28 36 37 35 41 41 40 41 40 39
45 45 44 44 45 45 44 41 43 42 37 36 38 38 39 41 40 38 32 36 37 35 36 35 32 28 29 28 24 26 26 30 29 27 28 31 35 39 39 39 39 38 37 37
46 45 44 44 43 44 44 41 43 41 38 34 32 38 38 40 42 39 38 38 39 38 39 36 34 30 31 29 27 27 26 29 24 25 26 33 38 38 39 38 38 37 35 34
46 46 45 44 44 43 44 44 44 43 37 32 32 38 37 37 39 39 39 39 40 40 38 37 34 34 33 32 34 29 31 28 30 28 36 36 36 37 37 37 37 36 33 32
45 45 45 45 44 43 41 34 41 44 44 37 33 37 37 38 39 39 39 41 41 40 39 39 38 34 35 34 28 30 35 35 35 34 35 36 37 37 34 33 33 33 32 30
45 45 45 45 43 42 39 37 40 43 45 37 34 34 38 37 39 40 40 41 41 40 39 37 35 35 37 34 30 33 31 30 31 32 33 35 34 35 31 31 30 31 29 28
45 45 44 45 43 42 41 44 43 43 41 39 34 34 36 38 37 37 41 39 41 40 39 38 35 35 36 34 28 27 26 28 30 29 29 30 33 30 28 28 28 28 27 26
45 45 45 42 40 38 41 43 44 46 40 35 35 31 31 39 37 38 39 39 35 39 35 37 38 36 31 25 25 25 25 25 26 26 28 27 28 26 24 24 24 23 22 22
43 40 36 32 38 44 43 39 35 36 37 38 35 37 34 37 36 37 36 37 34 33 34 36 34 24 25 23 22 23 23 24 25 25 26 26 26 25 23 23 22 22 21 20
41 37 35 41 43 40 37 33 34 33 31 34 34 35 34 38 33 34 37 34 34 30 32 33 29 23 22 22 20 21 22 22 22 23 23 24 24 24 23 22 21 21 20 19
40 38 38 36 34 35 31 30 31 29 28 33 32 34 36 36 37 35 34 34 34 29 32 32 24 19 18 18 18 19 20 21 21 21 21 22 21 22 21 20 19 19 18 18
31 30 25 24 23 23 25 24 26 28 30 31 33 33 36 34 36 35 36 31 27 29 28 21 18 17 17 19 18 19 19 20 19 20 20 19 20 21 20 18 19 19 17 18
24 23 17 20 18 20 22 24 26 28 30 30 35 32 34 34 31 30 27 25 26 23 19 14 18 19 20 20 21 18 19 20 20 19 19 18 18 18 19 18 18 17 16 16
21 20 16 18 22 23 23 26 28 29 31 34 33 30 30 27 26 26 25 21 17 17 17 18 19 19 19 20 20 20 19 19 19 19 18 17 17 17 17 18 18 17 16 15
18 18 17 22 23 22 24 25 26 28 30 32 30 28 24 21 21 19 16 18 15 16 18 20 20 19 19 19 19 20 20 20 19 19 18 18 17 16 16 17 16 15 15 14
17 18 21 21 22 20 22 24 25 28 30 28 26 21 19 19 16 12 16 16 17 18 19 20 20 19 18 19 19 19 20 19 19 19 19 18 19 18 17 15 16 14 14 12

GFSNW_sfc_dewp_072.txt.gz
Dewpoint
41 41 42 41 41 41 41 39 31 37 43 34 34 30 27 27 19 19 17 18 18 19 20 18 20 20 34 32 31 30 35 33 27 25 26 35 32 30 28 28 26 25 31 28
41 41 41 42 41 41 41 36 26 37 45 29 30 27 25 24 21 18 17 18 18 17 16 16 19 23 34 34 35 33 32 31 23 24 25 36 34 33 33 32 34 31 33 26
41 41 40 42 41 41 41 37 30 28 40 34 29 25 26 22 23 18 19 18 19 19 15 16 24 28 33 33 31 37 36 31 29 25 29 35 33 31 32 33 33 33 34 31
40 41 40 41 40 42 41 37 31 32 29 31 29 28 32 23 20 19 19 18 17 17 21 17 22 20 26 32 34 33 36 34 36 35 33 34 36 32 32 31 32 30 30 30
40 40 41 41 41 41 39 35 27 26 32 30 26 25 23 22 25 22 20 20 17 16 16 17 20 19 23 29 31 29 33 31 32 29 30 32 37 32 32 34 32 29 26 28
40 40 40 41 41 42 38 35 32 32 29 28 27 30 24 19 21 23 28 27 26 25 23 28 30 31 34 33 30 30 28 31 33 29 35 34 29 32 32 30 29 30 31 35
41 41 41 42 41 41 41 39 32 32 25 22 24 25 25 25 23 22 19 23 27 30 34 32 31 29 27 29 30 28 28 29 32 30 31 25 30 37 34 34 36 37 36 35
43 43 42 42 42 41 42 37 39 34 28 21 19 20 23 28 27 26 25 25 37 39 33 28 25 26 27 27 26 26 30 29 29 29 27 31 29 36 39 32 37 40 37 34
44 44 44 42 42 41 42 39 42 38 34 25 20 19 21 24 26 26 30 39 41 36 34 32 24 19 20 22 23 26 27 31 30 31 26 25 29 37 40 39 34 37 36 34
44 44 43 44 43 42 40 37 43 39 33 28 29 29 29 27 23 27 30 37 36 37 30 28 28 24 24 23 23 25 27 29 27 29 29 25 28 38 41 31 34 39 37 35
44 44 44 44 44 43 42 37 42 39 35 30 29 29 31 33 32 32 36 36 35 35 29 27 27 28 28 26 26 26 26 27 28 27 25 23 35 35 32 39 41 36 36 37
44 44 44 45 44 44 43 35 38 43 37 30 35 35 34 33 33 39 37 36 36 33 32 31 35 31 34 28 24 27 25 27 28 25 27 38 39 38 39 39 37 36 36 35
44 44 45 45 45 45 43 40 40 41 36 35 32 30 32 33 35 39 37 36 35 38 41 38 36 32 33 29 28 30 32 33 34 32 37 37 36 37 37 37 37 36 35 35
45 44 45 45 45 45 45 40 42 39 37 29 27 29 32 32 35 37 42 40 40 40 42 37 37 34 35 35 32 32 32 31 28 36 39 39 36 35 36 35 36 35 35 34
45 45 45 45 45 45 45 43 43 40 33 30 29 31 30 34 34 35 38 39 38 40 37 36 34 37 36 35 35 36 34 34 34 36 35 38 35 34 35 34 34 34 33 32
46 46 46 46 45 45 41 33 42 43 39 34 32 39 32 34 34 34 35 39 41 41 38 36 37 35 38 35 33 35 31 32 32 31 33 36 35 33 33 32 32 32 31 29
46 46 46 46 44 44 38 37 41 43 43 36 33 31 35 35 35 38 39 40 41 40 38 37 37 36 36 36 32 32 30 31 29 29 33 33 31 30 30 30 31 30 28 26
45 46 45 44 43 42 40 43 44 43 40 38 33 31 35 36 36 37 42 39 39 38 38 37 36 36 37 29 27 26 26 28 27 28 30 30 30 28 26 27 28 28 27 25
45 44 44 42 40 38 41 44 44 45 40 35 35 31 31 38 36 39 39 39 33 39 35 36 37 34 25 26 25 24 24 25 25 27 27 27 28 27 25 25 25 25 24 23
44 40 36 32 39 45 44 40 34 36 38 38 35 38 34 36 37 36 35 37 34 32 34 37 32 25 24 22 22 23 23 23 24 24 24 24 25 27 24 24 23 23 22 21
39 35 35 42 43 41 37 33 33 34 33 33 37 37 34 40 35 34 37 34 35 29 32 32 29 23 23 22 20 21 22 22 21 23 24 25 25 25 23 22 21 21 20 20
40 39 41 41 38 35 33 31 34 32 28 36 36 36 37 39 40 36 36 33 35 30 35 32 24 22 20 20 20 20 22 22 21 22 22 22 22 21 20 19 18 19 20 20
38 35 35 35 32 30 29 23 27 30 34 35 36 35 37 38 37 37 35 31 30 33 31 23 22 21 19 21 21 20 20 20 20 20 20 18 19 20 19 19 20 19 18 19
31 30 24 28 25 26 27 28 30 32 35 36 36 35 35 36 33 34 27 30 31 27 25 19 21 21 21 21 21 18 20 20 19 19 19 19 19 19 19 19 18 17 16 16
26 25 21 22 26 27 29 32 32 32 34 34 36 36 33 31 31 31 28 25 22 22 19 21 22 22 22 21 21 20 20 21 20 19 19 19 18 17 17 18 18 17 16 16
23 24 25 29 28 28 29 31 30 33 34 35 36 32 29 26 28 25 24 25 21 20 21 21 21 20 21 21 21 22 22 21 20 20 19 18 18 17 16 17 17 16 16 15
22 23 27 28 27 27 28 30 30 35 33 32 33 26 24 26 23 19 20 20 20 22 23 23 22 20 20 21 21 22 21 21 20 20 20 19 20 20 18 16 17 15 14 13

GFSNW_sfc_dewp_075.txt.gz
Dewpoint
41 41 41 41 42 41 41 38 29 34 40 31 33 26 25 28 25 25 24 23 19 19 20 19 19 25 34 34 32 33 37 37 30 28 32 36 34 38 37 34 31 31 29 32
40 41 41 41 41 41 40 34 32 34 40 27 27 29 26 26 25 26 23 21 21 21 18 18 20 31 34 35 34 31 33 34 29 25 27 27 33 37 37 37 37 34 31 32
40 40 40 41 41 42 40 33 27 29 33 34 30 26 25 25 26 25 22 21 21 20 21 22 19 25 35 36 34 38 36 31 28 27 31 35 35 38 36 36 35 33 33 34
40 40 41 41 40 41 39 33 30 32 20 29 31 31 32 28 24 25 23 22 19 20 19 22 23 24 34 34 36 36 36 30 32 32 30 33 33 34 38 35 36 36 36 34
40 40 40 41 41 41 38 32 30 32 32 32 33 28 26 26 27 29 27 23 22 25 19 19 20 26 28 29 36 34 35 30 32 29 29 32 33 36 37 39 36 37 37 37
40 41 41 41 41 41 35 37 34 33 28 26 29 31 29 25 25 24 27 33 32 30 31 33 32 33 33 33 33 36 33 30 28 27 31 32 32 35 38 38 39 39 37 39
41 41 41 41 41 41 38 38 34 28 23 23 22 22 25 34 30 27 27 30 31 36 38 37 34 32 30 34 34 34 29 30 30 28 31 26 32 36 38 39 40 40 40 40
43 43 42 42 42 41 39 37 34 31 23 24 22 23 22 25 31 31 29 30 39 38 35 33 30 25 26 28 28 32 31 31 28 26 27 29 32 39 38 38 37 40 41 42
43 43 44 42 43 41 39 37 38 35 30 24 23 28 28 27 26 29 30 39 40 37 34 30 22 20 23 23 25 26 27 31 28 29 26 25 32 39 38 38 34 40 41 40
44 44 44 43 43 42 39 37 39 36 32 29 29 28 30 33 32 30 30 35 36 35 29 24 23 24 24 22 23 24 25 28 27 27 27 29 37 39 38 32 35 43 40 37
44 44 44 43 44 43 40 37 39 36 32 31 31 30 29 31 33 32 35 34 36 31 25 25 24 25 27 29 33 27 25 28 27 27 25 23 40 40 37 41 43 38 38 38
44 44 44 44 44 45 42 35 37 40 36 31 34 34 34 34 34 36 34 34 35 35 30 29 32 30 32 29 28 34 28 29 29 27 28 39 40 42 39 37 36 36 36 36
45 45 44 45 45 44 43 37 37 37 33 32 31 29 30 31 33 41 34 37 39 37 41 37 35 32 35 28 30 34 34 30 32 32 37 37 36 36 36 37 36 35 34 34
45 45 45 45 45 45 44 40 38 36 33 25 27 31 32 34 33 35 40 38 42 41 39 35 34 33 38 34 36 34 35 36 36 34 35 37 37 35 35 35 35 34 33 31
45 45 45 45 45 46 45 43 40 38 31 30 32 36 36 34 36 34 36 40 39 36 34 36 34 37 37 37 37 32 36 32 33 32 36 35 35 34 34 33 32 30 30 28
46 45 46 45 45 45 41 33 41 41 38 33 27 37 37 36 36 34 36 37 38 36 37 36 37 39 37 33 31 33 33 29 30 35 35 33 32 30 32 32 29 27 26 25
45 46 46 46 46 43 37 35 39 42 43 34 30 30 35 35 35 36 36 38 38 37 37 36 36 38 39 33 27 30 31 29 27 31 32 29 29 27 29 30 28 28 25 24
46 46 46 46 45 42 39 44 43 41 39 37 30 29 35 38 33 34 39 38 38 38 37 37 36 37 34 24 27 27 27 26 26 28 29 29 27 26 26 27 27 25 24 23
45 46 45 42 40 37 40 44 42 43 39 31 31 27 28 38 37 38 38 39 32 38 34 35 36 29 22 26 25 24 23 23 23 25 24 26 28 25 24 24 24 23 23 22
43 40 36 32 39 45 43 38 36 35 37 37 33 35 30 36 34 34 34 34 33 31 32 37 27 23 25 23 23 22 23 23 25 22 22 23 25 23 22 22 23 21 20 19
39 36 35 41 43 40 36 30 31 32 30 32 33 34 33 38 32 32 34 32 31 27 32 31 27 21 23 21 20 22 23 22 23 23 23 24 24 21 20 20 19 18 17 17
39 40 41 40 37 35 31 30 31 29 26 30 31 35 37 37 39 33 32 31 32 27 34 31 19 21 22 21 20 21 22 21 20 20 20 21 19 20 19 18 17 18 18 17
40 37 34 35 31 26 22 22 21 27 33 34 34 33 35 36 37 34 32 28 27 30 26 16 18 21 21 22 19 19 20 19 19 18 18 18 18 18 16 15 14 14 14 15
32 27 16 25 24 24 25 27 28 31 33 34 33 33 32 33 30 32 26 28 30 23 16 14 17 17 18 19 20 18 18 17 16 13 14 14 13 14 13 14 10 11 11 12
26 24 19 20 23 22 28 30 31 31 33 33 31 30 32 30 27 28 25 24 22 18 10 13 18 19 18 16 17 18 16 14 14 11 12 11 10 11 13 10 11 11 9 8
24 23 23 25 25 25 28 30 29 32 32 33 30 29 26 25 27 22 17 21 12 11 13 17 16 15 14 18 19 14 13 13 13 11 12 12 9 9 10 10 8 5 6 4
22 20 24 27 20 22 26 28 30 33 32 31 28 22 24 25 19 15 18 11 15 18 19 18 14 13 11 14 15 17 17 18 18 16 14 11 11 12 13 12 10 11 10 7

GFSNW_sfc_dewp_078.txt.gz
Dewpoint
41 40 40 41 41 41 39 33 27 34 40 30 30 24 23 26 21 25 23 25 25 22 21 19 18 27 33 35 33 31 37 33 28 29 31 38 39 37 37 31 31 33 32 32
40 40 40 40 41 41 37 33 31 34 38 25 24 27 25 24 22 22 24 26 24 23 21 17 22 32 35 35 33 32 33 31 25 25 29 36 33 35 36 39 37 34 31 32
40 40 40 40 40 41 38 33 25 29 31 31 29 25 24 24 26 26 23 21 25 24 22 24 21 28 35 35 37 37 36 31 28 24 28 33 34 35 36 38 33 31 33 33
39 40 40 40 41 41 39 32 23 29 26 28 29 29 28 26 23 25 26 24 25 23 20 19 19 26 34 35 38 36 35 28 31 31 31 30 29 34 33 34 36 33 31 35
40 40 41 40 41 41 38 30 29 31 32 33 30 32 27 29 26 32 28 28 28 30 26 26 26 27 28 30 34 34 35 28 30 28 28 30 31 33 31 32 36 35 35 37
40 40 40 41 41 40 35 37 35 33 27 25 26 27 28 32 35 32 30 30 31 30 31 35 34 33 32 32 34 33 33 33 28 23 29 28 28 32 32 32 37 37 35 36
40 41 42 42 42 41 38 38 36 29 22 23 22 22 22 30 32 31 31 33 30 34 39 37 34 32 31 31 33 36 32 31 29 25 28 23 33 34 39 40 40 40 40 42
41 41 42 43 43 42 39 36 35 32 22 25 23 24 26 27 29 28 30 33 37 38 34 30 26 25 25 26 30 32 32 30 25 21 24 23 30 37 39 35 35 42 41 43
42 42 42 43 43 42 38 36 37 35 28 25 27 27 30 29 29 29 30 39 39 35 31 27 21 20 22 22 25 28 31 31 26 26 22 19 32 36 40 41 33 41 43 43
42 42 43 44 44 43 39 37 37 35 30 28 28 25 26 31 31 30 33 32 34 33 26 22 22 23 25 21 22 24 26 27 26 24 24 27 32 40 42 32 35 40 40 40
42 43 44 44 43 43 41 35 38 35 31 30 30 31 28 29 30 28 32 31 35 32 25 24 23 22 25 26 30 30 26 26 25 27 26 22 39 39 36 40 42 41 40 39
43 44 44 44 44 44 42 35 38 39 33 28 35 34 33 31 32 32 35 34 34 34 29 28 30 27 30 30 27 35 30 29 27 27 28 39 41 41 42 41 39 36 37 36
44 45 44 44 44 44 43 37 36 35 32 30 29 28 31 34 33 38 31 37 37 37 39 36 35 31 34 29 31 35 34 37 32 31 36 37 37 37 37 36 33 32 32 33
45 46 45 45 45 44 44 39 38 34 31 20 24 30 31 32 31 33 37 36 40 40 39 36 34 31 37 33 32 30 33 35 35 33 34 36 36 36 33 33 32 30 28 28
45 46 45 45 44 45 44 43 39 36 28 24 28 34 34 33 33 33 37 38 38 38 35 32 33 37 37 35 33 27 33 30 33 31 34 34 34 33 31 29 27 27 26 25
45 45 45 45 45 45 42 33 41 39 37 31 24 32 35 36 36 35 35 37 39 37 34 35 36 39 35 32 27 30 32 34 35 33 35 33 30 30 29 27 25 24 24 24
45 45 46 45 45 42 37 34 38 41 42 34 26 27 34 38 35 36 35 37 37 35 36 35 35 37 37 29 23 28 31 32 33 33 35 28 27 26 29 26 25 24 22 22
45 45 46 46 44 43 40 43 42 41 38 36 27 26 32 38 33 34 36 35 35 37 36 36 35 35 30 23 26 26 28 28 27 28 28 26 26 26 27 26 24 22 21 20
46 45 46 42 39 36 39 44 42 43 37 29 29 27 25 39 35 37 36 38 31 38 33 34 33 25 20 23 22 23 23 24 26 26 27 26 24 23 23 23 22 21 21 20
44 41 36 32 39 44 43 40 35 35 36 37 31 33 30 36 34 33 33 34 32 29 31 33 24 21 24 21 22 22 22 24 23 22 21 25 21 20 19 20 20 19 18 18
39 34 34 41 43 40 36 30 30 31 29 31 30 33 33 39 32 31 34 31 32 28 30 29 24 19 20 22 21 21 21 21 21 21 21 21 21 19 17 17 17 17 17 15
39 40 42 40 36 33 31 28 30 27 24 28 32 33 36 35 38 32 33 30 31 27 34 24 13 19 20 19 19 20 20 19 18 19 18 18 18 18 16 16 15 15 14 13
40 37 33 33 31 26 21 21 24 27 32 33 34 33 35 33 36 33 31 24 27 31 17 14 16 20 20 19 18 18 18 17 16 16 16 16 15 15 14 13 12 12 11 10
31 26 17 19 23 24 19 23 28 31 32 33 32 32 30 33 29 31 25 26 27 20 11 12 15 16 18 19 18 16 13 13 12 10 11 10 10 10 9 7 3 5 6 4
25 24 16 14 20 22 28 29 30 31 33 33 31 27 29 27 26 28 26 23 18 15 13 12 16 15 15 14 15 13 11 9 9 6 7 4 5 7 8 2 3 5 4 3
23 21 20 24 21 22 26 29 29 32 32 33 30 28 25 25 26 18 15 18 12 7 8 11 16 14 13 14 13 10 8 8 6 6 6 6 4 5 4 4 3 -1 2 -0
21 17 15 13 12 22 22 28 28 32 32 30 27 22 22 25 13 10 13 5 7 14 15 13 9 11 12 11 14 14 15 12 8 7 7 6 4 5 9 7 5 9 6 0

GFSNW_sfc_dewp_084.txt.gz
Dewpoint
40 40 40 40 40 40 36 30 21 32 38 27 27 18 22 23 23 24 22 25 24 23 26 25 29 31 35 37 36 33 36 31 26 27 30 35 35 32 32 31 28 31 28 27
40 39 40 40 40 39 33 28 27 32 33 11 17 27 24 24 24 22 21 21 21 32 24 24 29 33 38 39 35 35 34 29 21 16 27 36 35 35 37 35 35 31 29 27
39 38 38 39 40 40 34 26 22 24 32 24 22 23 21 21 27 25 24 23 25 23 22 25 26 30 36 37 36 37 33 30 22 16 20 29 27 29 31 32 28 26 29 30
37 37 37 38 39 38 36 29 20 24 19 21 23 27 25 22 21 23 23 22 23 21 24 27 28 32 35 36 36 36 29 26 29 28 28 29 28 28 28 29 28 27 25 27
37 38 39 40 39 39 36 25 26 30 23 26 25 25 23 23 26 29 25 24 23 24 28 27 29 30 28 30 33 33 34 27 29 27 26 25 27 24 22 23 25 28 28 30
40 39 39 41 39 41 35 36 34 32 25 24 21 22 24 27 30 29 29 29 31 30 31 30 33 35 34 32 32 31 31 28 25 19 23 25 19 25 29 29 31 30 30 31
38 39 40 41 41 41 36 32 33 27 19 23 21 22 24 27 30 28 35 33 32 34 39 37 34 34 32 32 32 33 29 28 27 23 22 10 17 36 36 34 33 31 36 38
40 41 42 43 41 41 39 34 32 29 21 26 22 23 25 27 30 31 33 34 36 38 37 27 24 23 23 24 29 33 31 29 24 18 20 19 20 34 32 31 30 36 37 39
40 41 41 42 42 42 41 37 37 33 24 20 25 26 24 23 28 27 30 30 36 35 29 26 20 18 21 19 19 31 32 29 25 23 18 11 17 36 38 38 29 37 40 41
39 40 41 42 42 43 42 39 38 35 26 27 27 24 25 30 28 27 28 27 32 32 26 22 21 20 25 19 19 24 27 27 24 23 21 23 31 38 39 29 30 35 37 34
40 41 42 42 42 43 42 39 38 35 29 27 30 30 27 27 26 23 26 25 27 30 26 26 25 23 25 26 25 24 24 25 23 25 23 18 37 38 32 37 36 34 34 33
42 42 42 42 43 43 43 37 38 38 32 27 32 34 33 30 29 28 30 29 32 33 30 29 27 25 27 26 22 29 27 31 28 27 27 35 35 35 36 36 34 36 34 34
41 42 42 42 43 43 42 37 38 38 35 30 29 26 28 33 33 34 29 32 35 34 36 34 32 29 33 27 25 27 25 33 29 33 32 31 33 34 33 33 32 33 34 33
42 43 44 44 44 44 43 38 38 36 31 26 24 28 28 30 32 34 34 35 38 36 36 33 31 28 35 31 28 23 26 29 27 32 34 32 30 31 31 30 30 28 29 29
43 44 45 45 44 45 43 41 38 36 29 21 25 29 30 32 32 33 34 34 34 32 28 32 27 33 35 33 29 21 27 25 24 26 32 30 28 29 30 27 25 24 23 23
44 45 45 45 45 44 42 33 40 37 36 31 21 28 29 32 32 31 31 33 34 33 33 34 33 37 35 29 23 25 28 30 31 30 32 30 29 28 28 24 23 21 21 21
45 45 45 45 45 43 38 34 37 39 40 33 25 24 28 35 34 32 33 35 35 33 35 31 32 33 33 26 20 25 27 30 31 31 34 28 28 25 23 21 20 20 18 18
45 44 44 45 45 42 39 40 41 40 37 36 26 23 27 35 29 30 34 31 33 34 33 32 34 31 29 20 24 25 25 28 28 27 27 26 25 23 22 21 19 18 17 16
45 45 45 43 40 37 40 43 41 42 37 28 28 23 19 36 34 35 34 34 26 32 31 33 31 23 16 21 21 21 21 20 21 24 22 20 19 19 19 18 18 17 16 15
45 41 36 30 37 44 42 39 33 34 34 35 24 27 25 34 33 30 29 32 28 29 32 30 22 16 22 20 20 20 20 20 20 21 19 19 18 17 17 17 17 16 16 15
40 34 33 40 44 38 34 30 30 30 28 28 30 28 26 37 31 29 33 30 32 27 30 28 21 15 19 20 18 19 19 19 19 19 19 18 17 16 15 15 15 15 13 12
39 39 41 39 35 32 29 26 29 26 21 27 28 30 31 34 35 32 32 29 31 25 31 23 11 17 19 18 17 17 17 17 17 17 17 16 16 15 14 13 12 11 9 7
40 37 32 33 31 25 18 20 24 23 22 29 33 31 33 34 35 32 32 28 26 28 16 12 11 18 18 18 16 16 16 16 15 14 14 13 12 11 11 9 6 7 5 3
33 29 23 25 22 19 20 23 19 24 32 32 33 32 32 32 31 30 18 23 28 19 11 10 13 16 17 17 16 13 10 9 9 6 7 6 5 1 1 -2 -5 0 -2 -6
27 25 20 15 20 22 28 30 30 31 33 33 32 30 32 25 23 24 24 22 18 13 10 4 11 14 14 11 10 7 5 3 4 1 2 -2 1 3 0 -4 -3 -1 -5 -6
24 19 17 22 21 24 27 29 29 32 32 33 30 25 20 19 22 21 17 16 11 5 0 6 13 10 10 10 11 8 6 5 1 -1 1 1 -1 1 -1 -3 -4 -7 -6 -8
20 16 19 15 15 22 25 27 27 31 32 25 22 16 17 22 14 13 14 9 4 4 9 9 9 10 9 6 5 7 8 6 4 2 2 1 -0 0 5 5 1 5 4 -4

GFSNW_sfc_dewp_087.txt.gz
Dewpoint
39 39 39 39 40 40 36 31 22 32 38 26 28 23 24 25 21 22 20 21 20 19 19 26 25 27 29 35 37 31 34 29 25 25 30 35 34 32 31 29 27 32 29 26
39 39 39 39 39 39 34 28 27 32 34 17 21 23 22 21 21 21 21 19 18 19 21 21 20 28 33 35 35 34 33 28 17 28 31 35 32 36 34 32 31 28 27 25
40 39 36 36 39 41 35 27 20 24 32 26 24 23 21 20 23 24 24 22 24 21 21 21 23 25 33 35 37 38 35 29 19 11 21 28 27 27 26 30 26 21 23 23
38 36 36 36 39 40 35 28 23 25 19 23 26 25 24 21 21 24 24 23 22 19 19 24 24 30 33 36 37 35 31 25 28 26 27 27 26 25 26 25 24 22 19 20
36 37 38 39 40 40 35 28 25 30 25 26 22 24 22 21 25 28 23 26 23 23 23 24 27 32 32 31 34 33 34 27 29 23 25 24 22 22 21 21 23 23 24 27
38 39 39 39 41 40 36 36 35 30 23 24 22 21 23 26 29 27 25 28 29 26 27 32 33 34 36 34 32 32 31 30 27 21 23 22 16 22 22 23 28 31 27 30
38 38 38 40 41 40 36 34 33 28 19 22 21 22 24 24 28 26 30 34 31 33 38 37 37 36 34 33 32 33 30 27 28 22 22 6 18 23 31 33 32 32 33 35
37 39 40 42 42 42 39 35 34 29 22 24 20 20 23 25 28 30 32 32 35 37 37 30 24 23 23 23 28 32 31 29 25 22 19 17 20 33 30 32 29 35 34 35
39 40 41 41 41 41 41 37 37 34 25 19 25 25 24 22 26 25 28 30 35 36 31 26 18 17 19 17 23 33 31 31 26 23 15 12 15 33 36 37 29 34 33 32
39 39 40 41 42 42 42 40 39 35 28 25 27 24 24 28 26 24 26 27 32 33 28 24 22 19 24 17 17 23 26 25 22 21 19 20 33 35 38 28 29 34 33 31
39 39 40 41 42 42 42 39 40 36 29 27 30 30 28 27 26 24 26 27 28 30 26 25 26 25 26 26 26 25 23 24 23 22 22 18 34 34 31 35 35 34 32 31
39 40 42 42 42 43 42 37 40 40 34 29 32 33 32 30 31 30 30 30 32 33 27 28 30 24 28 26 23 28 27 29 25 30 28 32 33 31 33 34 33 33 32 32
41 41 41 42 42 42 42 38 39 37 34 30 29 28 30 34 34 35 29 32 34 34 35 32 32 27 32 27 24 25 24 28 28 28 29 28 30 31 31 30 30 30 31 30
40 41 42 43 43 43 42 39 39 36 31 25 25 29 29 30 33 34 33 31 37 36 36 30 32 27 35 29 26 23 25 27 25 30 31 30 27 29 29 29 29 28 28 28
40 42 43 44 45 44 42 41 39 37 30 24 25 30 29 32 32 33 34 33 32 33 30 31 30 33 34 32 25 21 26 25 24 23 29 26 25 27 28 25 25 25 23 21
41 42 44 45 46 44 41 33 40 38 38 32 24 30 29 32 32 32 32 33 34 34 32 32 34 37 35 28 22 25 28 31 29 30 29 27 26 26 27 23 22 22 19 18
42 43 45 45 45 43 37 35 36 39 40 33 25 25 29 35 33 33 33 34 35 35 33 34 33 33 32 27 21 24 26 30 29 31 30 25 26 23 25 22 20 19 16 16
42 44 45 45 45 43 39 42 41 40 37 33 26 25 28 35 32 32 35 32 34 36 33 34 33 30 29 20 23 24 24 27 27 26 26 25 24 21 19 18 17 16 16 15
43 45 45 43 40 37 39 42 41 42 37 28 27 23 23 35 34 35 35 35 30 33 32 32 32 23 18 21 22 20 19 20 22 22 20 19 17 17 18 18 15 15 15 14
44 42 37 31 37 43 42 38 34 34 34 35 27 28 26 33 34 31 31 33 28 26 32 30 24 18 21 20 19 19 19 19 21 21 19 18 16 16 16 16 15 14 13 13
40 35 34 40 43 38 34 30 30 31 28 30 31 28 27 36 31 30 31 31 31 27 30 30 22 17 19 19 17 18 19 18 18 18 18 17 17 15 15 15 14 13 12 11
38 39 41 40 35 33 29 26 29 27 23 28 27 28 32 35 36 32 33 30 31 26 31 26 20 18 19 17 16 17 17 17 17 17 16 15 15 15 14 13 12 11 9 8
41 36 32 33 31 26 22 18 24 24 26 26 31 30 32 35 35 33 33 29 28 30 24 21 16 19 18 17 16 16 16 15 14 14 13 12 12 12 11 9 8 9 6 5
34 31 25 25 23 24 21 23 25 27 28 30 32 33 32 32 31 32 26 27 28 22 20 19 17 18 18 18 16 13 12 11 11 10 10 9 7 5 4 4 5 6 4 2
30 28 20 20 21 23 27 27 30 31 33 34 33 32 32 29 27 26 25 24 21 22 21 15 17 17 15 13 12 10 8 7 8 8 7 6 6 7 5 3 5 4 2 2
25 21 17 20 23 26 29 28 30 33 33 34 32 28 27 25 24 23 22 21 19 18 13 12 14 12 12 12 12 10 9 9 8 8 8 8 7 8 7 5 5 2 3 2
20 14 12 14 17 22 25 28 29 31 33 29 25 21 22 22 18 18 17 17 15 10 12 14 14 13 11 10 10 10 11 10 10 10 10 9 7 8 10 10 10 10 8 5

GFSNW_sfc_dewp_090.txt.gz
Dewpoint
40 39 39 40 39 40 35 35 30 37 39 29 29 21 17 22 16 19 19 20 17 17 18 21 22 24 23 32 34 29 32 28 26 27 33 30 30 28 30 27 28 28 28 23
40 40 40 39 39 38 36 31 26 34 38 26 23 20 17 19 19 18 18 17 17 17 16 18 20 22 28 31 34 34 32 26 23 26 28 31 28 34 32 30 30 27 25 23
40 40 38 37 39 40 35 36 30 26 32 32 25 22 17 17 18 20 21 21 22 20 18 18 19 20 29 33 34 37 38 27 19 15 23 28 30 27 26 28 27 21 22 19
41 38 36 36 39 40 35 36 29 28 27 24 25 26 24 20 19 22 21 22 22 23 21 17 19 26 33 35 37 35 32 25 24 22 22 20 19 19 21 23 22 19 15 16
39 37 38 39 40 39 36 33 26 29 27 25 28 23 23 22 23 27 22 26 23 23 25 20 21 28 30 33 34 33 30 26 24 18 20 20 18 17 17 17 18 21 21 23
37 38 39 40 41 38 37 35 33 31 23 19 23 21 23 24 30 24 26 32 30 25 24 26 28 30 33 33 33 32 29 26 19 18 15 16 14 18 18 19 21 25 24 28
40 40 40 39 41 39 34 32 31 29 23 17 17 19 20 24 28 28 29 33 32 33 36 35 34 35 34 33 32 33 27 24 26 21 20 5 24 25 28 25 30 32 32 32
38 39 39 40 41 41 38 35 35 31 24 20 17 20 21 21 28 31 31 32 34 36 35 33 25 24 24 25 30 29 30 27 24 21 15 13 24 29 28 29 31 32 30 29
38 39 40 41 41 42 41 37 37 36 29 20 22 22 21 21 24 23 27 29 36 36 35 27 17 16 17 16 26 30 30 28 26 22 10 6 26 29 33 34 31 31 29 28
39 40 40 41 41 41 42 41 40 38 31 26 27 24 25 25 23 21 24 28 31 32 29 24 21 18 22 16 14 20 25 25 22 22 21 21 31 32 32 30 30 33 31 30
40 40 40 40 41 42 43 41 41 38 32 29 29 28 27 24 24 25 26 29 29 30 26 25 23 24 25 25 27 26 24 26 26 23 21 17 31 31 30 32 34 34 32 31
39 39 40 41 41 42 42 39 41 41 35 31 35 33 32 30 29 29 30 30 31 34 28 28 29 26 30 26 25 29 28 27 27 27 26 30 31 30 32 33 31 32 32 31
39 40 41 42 42 42 42 39 40 38 34 31 30 26 28 32 33 33 27 31 32 33 35 32 32 27 32 30 28 28 30 28 30 30 29 28 28 29 29 31 30 31 31 30
40 41 41 41 42 42 42 39 39 37 33 30 25 28 29 30 33 33 33 30 31 32 33 32 32 30 35 32 27 27 27 29 27 29 30 29 28 29 30 29 30 27 28 28
40 40 40 42 43 43 43 41 40 38 31 29 26 31 29 34 34 32 33 33 32 32 31 31 30 33 35 33 28 25 26 26 26 26 30 28 27 28 28 26 25 26 24 21
40 41 41 42 44 43 42 34 41 40 35 33 29 31 30 34 34 32 33 33 34 34 32 32 33 37 35 32 26 27 30 31 31 29 30 28 28 27 27 24 23 23 23 21
40 41 42 44 46 44 38 35 39 40 40 35 28 27 30 34 33 33 33 35 36 35 33 33 33 34 35 32 26 26 30 30 31 32 29 26 27 24 25 23 22 21 17 17
41 42 43 45 44 43 39 44 41 40 38 34 27 27 29 36 33 33 37 35 34 35 33 34 33 33 32 23 24 26 27 29 27 28 27 26 24 20 18 18 18 17 17 17
41 42 45 43 40 37 40 42 41 42 38 30 28 27 29 35 33 36 36 36 32 36 32 32 33 29 25 24 24 23 21 22 25 23 20 19 19 18 18 17 17 16 16 16
42 43 38 32 38 43 42 39 36 35 37 35 29 31 31 34 34 33 33 34 30 25 31 34 31 24 22 20 19 19 19 20 23 20 18 18 17 17 17 16 15 15 15 15
40 35 35 40 42 38 35 32 31 30 28 31 31 31 31 36 32 31 33 32 30 24 31 31 27 24 21 20 17 18 19 18 19 19 19 18 18 17 16 16 15 15 14 14
38 40 41 41 37 35 31 28 30 27 23 30 29 28 30 34 36 33 32 28 33 28 34 30 26 22 20 18 17 17 18 18 18 18 17 17 16 16 15 15 14 14 12 11
42 38 33 34 33 29 26 22 25 28 30 33 33 30 33 35 35 34 34 30 31 33 30 28 24 21 19 18 17 17 17 16 16 16 16 15 15 15 15 13 13 12 10 10
34 33 28 28 28 29 30 30 34 35 35 34 31 33 33 36 31 34 30 32 32 25 25 25 23 21 21 20 18 16 17 17 17 16 15 14 12 11 11 12 11 10 9 8
35 33 28 28 33 32 33 33 33 33 36 36 34 35 34 33 32 32 29 27 23 24 28 26 23 22 20 19 18 16 14 14 15 15 13 12 12 11 10 10 12 10 8 8
29 26 28 28 30 30 32 32 31 36 36 38 36 32 31 30 31 27 26 24 24 29 26 24 22 19 18 17 16 15 15 15 15 15 14 14 13 13 13 12 11 10 10 9
25 27 28 30 32 33 32 33 32 34 36 33 33 29 29 28 26 25 26 29 27 23 23 23 22 19 17 16 15 15 15 16 16 15 15 14 14 14 14 14 14 13 12 11

GFSNW_sfc_dewp_093.txt.gz
Dewpoint
41 40 40 40 39 39 38 34 33 36 38 29 25 20 15 20 13 14 14 16 14 14 16 15 14 17 21 32 30 30 29 35 28 21 23 20 24 25 28 25 24 23 27 28
41 41 40 39 39 39 33 30 25 35 37 29 25 16 13 14 15 14 14 14 15 17 17 17 15 18 23 26 33 32 35 34 29 29 31 31 26 25 25 30 29 27 24 22
41 41 40 38 39 40 37 37 33 25 26 30 25 21 15 14 17 17 18 18 18 19 20 19 16 17 20 31 35 38 37 32 30 24 24 30 30 29 29 28 27 21 21 18
40 40 38 36 38 41 36 37 30 26 29 23 25 23 24 19 18 22 21 21 20 24 23 19 17 24 33 33 36 37 35 29 27 27 24 23 25 24 24 24 24 18 16 14
41 39 37 37 40 41 35 36 26 26 27 23 25 26 22 20 21 24 21 23 23 24 23 19 21 23 26 32 36 35 36 28 22 18 16 15 16 16 16 16 16 15 17 19
39 38 39 40 41 40 33 32 31 28 21 20 23 23 21 24 32 25 24 29 30 26 27 30 29 29 30 31 34 35 32 23 19 17 13 11 13 13 14 15 21 28 25 29
38 39 39 41 41 40 36 31 30 30 22 15 15 17 18 21 26 30 29 30 29 31 35 34 32 31 30 32 31 32 33 23 24 19 18 16 22 23 22 27 31 30 29 29
40 40 40 40 41 41 37 34 31 29 26 17 16 19 19 21 26 33 33 32 35 36 35 30 27 25 27 28 28 27 28 27 20 20 17 15 23 24 25 26 31 31 30 29
39 40 39 40 41 42 42 36 37 35 29 21 22 22 21 20 24 24 31 33 37 38 35 32 22 17 16 16 21 27 26 26 26 21 13 13 27 28 31 32 28 31 30 28
39 39 40 41 41 42 43 43 41 38 34 25 27 23 24 24 23 23 25 30 31 31 32 27 22 18 18 17 18 18 23 25 24 22 20 27 28 29 31 30 27 31 30 28
40 40 41 41 41 41 43 42 41 39 36 29 29 28 27 24 23 25 27 31 30 30 27 25 24 24 22 25 26 26 25 27 26 24 22 23 29 28 28 30 34 34 30 31
41 41 41 40 41 42 42 40 41 42 37 32 36 35 35 32 30 29 30 27 31 34 28 28 29 29 31 25 28 28 28 26 27 26 25 31 29 29 31 32 31 33 31 31
41 40 40 40 41 42 42 42 41 39 36 32 31 27 29 29 32 33 27 30 31 32 31 31 31 28 31 30 28 31 32 29 31 29 29 26 27 29 30 30 30 31 31 30
39 39 40 41 42 42 42 41 40 37 33 30 26 27 29 30 32 32 33 31 33 33 31 32 33 32 35 32 29 27 27 30 28 28 30 29 28 29 30 29 30 28 29 29
39 40 41 41 41 42 43 44 40 38 34 31 28 30 29 32 33 32 32 33 33 30 31 31 32 36 35 35 31 27 28 27 27 26 31 28 26 28 28 26 26 27 26 25
40 40 40 41 42 43 42 35 40 39 38 32 29 30 29 31 35 33 31 32 33 32 30 31 32 37 34 33 27 28 31 32 33 30 30 29 28 27 27 25 25 25 24 24
40 40 41 42 43 44 38 36 40 41 38 35 28 28 30 32 33 32 31 32 32 32 31 32 32 35 34 33 29 28 31 32 33 32 29 28 28 25 27 26 25 25 21 19
40 40 42 44 44 42 39 43 42 40 37 34 27 27 30 33 33 32 34 32 33 33 32 33 33 34 33 26 27 28 30 30 29 29 28 26 24 22 19 19 19 19 19 18
40 41 42 43 41 38 41 42 41 42 39 33 29 28 30 35 33 34 35 34 32 35 32 32 32 31 26 26 26 26 26 26 26 24 21 20 20 19 18 18 18 17 17 17
41 41 37 32 38 43 41 39 36 36 37 35 30 31 31 32 34 32 32 33 29 27 31 34 31 26 23 23 25 21 20 22 22 20 19 19 18 18 18 17 17 17 17 16
39 35 35 41 42 39 37 33 33 31 28 29 30 31 31 34 32 32 33 33 31 25 31 31 30 26 23 21 19 19 20 21 22 21 21 20 19 18 18 17 17 17 16 14
39 39 41 39 36 36 32 29 29 27 23 32 30 30 30 37 37 33 32 28 33 28 34 31 28 24 21 19 19 19 20 20 19 19 19 19 18 18 17 17 16 15 12 12
42 39 35 34 34 30 28 24 25 29 32 35 34 31 33 36 34 33 33 29 30 35 32 29 27 23 20 20 19 19 19 19 18 18 18 18 18 17 17 15 14 13 12 12
35 33 30 31 29 30 31 32 36 38 38 35 33 33 33 35 32 35 30 34 32 28 27 27 26 24 23 21 20 18 20 20 20 20 18 17 15 15 15 14 13 12 11 11
34 35 29 30 36 35 35 36 35 36 37 36 33 35 34 33 33 33 30 28 25 24 28 29 26 24 23 22 22 20 19 18 18 17 16 15 14 14 14 14 14 13 11 10
34 30 31 32 33 32 33 33 33 37 38 37 36 32 32 32 31 29 26 25 25 30 29 28 25 23 22 21 20 19 19 19 19 18 17 16 15 14 15 14 14 13 12 11
31 30 31 33 33 34 34 35 36 38 36 34 32 29 29 32 27 26 30 30 29 28 26 26 25 23 21 20 19 18 19 19 19 18 17 16 17 15 15 15 15 15 14 13

GFSNW_sfc_dewp_096.txt.gz
Dewpoint
41 40 40 39 39 38 38 36 33 35 36 32 24 22 14 20 10 12 10 11 11 14 15 15 16 14 13 23 26 23 27 34 26 31 29 30 17 25 30 26 22 22 29 32
41 40 40 39 38 38 37 32 27 31 37 30 23 16 12 11 11 11 12 14 15 14 14 17 14 16 17 29 28 27 33 27 26 27 30 25 18 18 26 32 29 30 27 32
41 40 40 38 38 39 37 36 33 27 29 26 24 19 14 13 15 16 18 18 17 22 23 22 21 20 21 30 34 34 36 29 25 23 26 25 22 22 29 31 28 26 26 30
42 41 39 36 37 39 38 38 33 26 29 23 23 23 22 19 18 21 19 20 18 19 20 18 16 24 29 30 33 37 35 28 32 32 32 31 32 31 34 31 28 22 19 25
41 40 37 36 38 39 37 36 29 19 26 26 26 27 22 19 21 23 21 24 22 23 24 22 21 23 26 31 33 36 36 31 32 30 31 28 31 32 31 21 22 19 20 23
41 39 38 38 39 40 35 30 28 27 22 21 23 25 19 22 29 25 23 26 26 24 30 30 31 31 30 31 31 35 34 33 25 16 11 14 18 16 16 28 29 27 26 27
40 38 39 40 39 40 38 33 29 29 22 14 14 15 18 20 24 30 29 29 28 27 33 33 31 30 28 30 32 31 34 32 22 19 20 20 23 25 30 31 29 28 28 27
39 39 40 40 40 40 39 36 32 28 28 16 14 17 20 20 27 33 35 31 34 37 35 31 26 29 31 27 24 25 32 29 23 20 24 27 28 27 28 30 29 29 28 27
41 41 40 39 39 40 40 40 39 34 30 25 21 19 23 20 24 25 31 32 34 38 34 32 27 17 23 26 22 25 23 27 25 22 15 19 25 27 29 30 25 30 28 27
40 40 40 40 40 41 41 44 42 35 33 25 27 23 23 23 23 23 26 29 30 33 31 31 26 20 21 25 22 24 27 26 25 23 24 25 26 27 29 27 25 31 29 27
40 40 41 41 41 40 42 43 40 37 36 30 29 30 27 25 24 24 27 30 30 29 27 24 25 27 27 26 25 26 24 27 25 27 26 20 27 26 24 30 33 32 29 29
41 41 41 41 41 40 42 40 40 41 37 31 36 35 34 31 30 29 29 30 31 33 27 27 29 28 31 31 26 27 25 27 27 24 25 29 28 29 31 31 29 30 29 29
41 41 41 40 40 41 41 42 42 40 35 32 31 30 32 29 29 32 29 32 29 31 31 31 31 31 29 28 27 32 31 29 29 28 27 25 27 29 30 29 28 29 30 29
41 40 40 40 40 41 41 41 40 37 33 30 30 27 28 29 31 30 32 31 32 33 31 31 31 32 32 31 31 26 27 29 28 27 28 26 25 28 29 29 29 28 29 28
40 39 39 40 41 41 42 45 42 41 35 29 28 31 28 29 32 31 31 31 31 31 30 32 31 36 33 36 31 25 27 25 26 24 30 26 25 29 28 26 27 27 26 25
39 40 40 41 41 42 43 35 40 41 37 32 28 31 30 29 32 31 30 31 31 30 28 31 31 36 33 31 26 27 30 32 33 28 29 28 28 27 25 25 26 25 25 25
39 40 40 40 43 44 39 37 41 42 40 34 29 28 29 28 29 30 30 31 29 31 29 31 32 35 34 33 26 27 30 32 34 34 29 27 28 24 24 24 24 24 22 21
40 40 40 42 43 41 39 44 42 41 36 33 27 26 30 31 32 32 32 32 32 31 30 32 31 35 33 25 28 30 29 30 31 29 28 26 23 20 20 20 19 19 18 19
40 40 41 42 41 37 40 42 41 43 40 32 30 26 31 33 31 35 35 33 32 34 33 32 31 32 25 27 27 28 29 29 28 24 21 21 19 19 19 19 18 18 18 18
40 42 38 32 37 43 42 39 37 36 36 34 30 30 30 32 33 33 34 34 29 27 31 33 31 25 25 27 28 27 23 25 22 21 20 20 19 19 18 18 18 17 16 15
39 35 34 41 43 40 38 32 32 31 28 29 30 31 32 33 33 31 32 32 31 24 31 30 30 25 23 21 21 20 22 23 22 22 22 21 20 18 18 18 18 16 13 11
39 39 41 40 36 34 32 28 30 27 23 32 31 30 29 36 35 33 32 27 31 25 34 31 27 25 22 20 20 20 21 20 20 21 20 20 19 19 18 17 15 13 12 12
41 38 34 33 34 28 25 22 25 28 32 36 36 32 33 34 32 34 32 26 27 34 32 27 26 23 21 21 20 20 20 20 20 19 19 19 18 18 17 14 14 14 13 13
34 32 29 30 28 28 31 33 37 39 40 36 35 32 33 36 32 33 27 33 30 27 25 27 25 25 25 23 21 20 22 23 22 20 19 17 16 14 14 14 13 12 11 10
33 33 28 29 35 36 34 36 36 38 38 37 34 35 33 34 32 32 31 29 25 26 28 29 27 26 25 24 23 22 21 20 19 18 16 15 15 14 14 14 14 13 11 11
34 34 32 34 34 32 33 34 34 38 39 38 36 33 32 31 31 29 26 26 24 29 28 28 27 25 24 23 22 20 21 20 20 18 17 16 14 15 16 16 15 13 13 10
33 31 33 34 34 34 33 35 37 38 38 33 32 29 26 33 27 26 31 30 29 28 27 27 26 25 23 22 21 22 21 20 20 19 18 18 18 17 16 15 15 15 16 14

GFSNW_sfc_dewp_099.txt.gz
Dewpoint
42 40 41 40 40 38 37 36 31 36 37 32 32 27 15 21 10 15 14 14 15 16 16 15 16 16 16 19 28 23 31 30 24 22 24 33 32 31 31 26 25 26 29 30
40 40 40 40 38 39 37 35 30 35 38 27 27 19 12 11 12 14 15 19 22 19 20 19 21 23 26 32 29 26 32 27 19 20 28 31 30 29 29 33 32 28 27 29
41 40 40 38 38 39 37 36 29 29 33 29 25 23 21 16 21 19 20 19 19 21 22 23 24 24 26 32 32 32 35 30 23 17 20 25 28 29 30 32 28 31 32 31
40 40 39 38 37 39 38 36 31 29 28 25 24 25 25 21 19 22 22 20 24 23 21 22 21 24 27 29 31 33 34 27 28 27 25 27 28 29 34 34 34 31 30 27
42 41 38 37 38 40 37 32 31 20 30 29 24 25 24 21 22 25 22 25 24 25 23 24 27 28 28 30 34 35 36 29 32 31 33 33 34 34 33 32 31 31 29 26
41 40 38 38 40 40 36 35 29 30 25 22 26 27 25 23 27 26 24 27 29 25 26 32 32 31 31 31 30 30 33 31 30 27 31 30 29 30 27 27 27 27 25 26
41 39 40 40 40 40 39 36 33 30 24 20 21 18 20 23 27 20 27 31 30 29 36 36 34 32 31 31 31 31 33 33 31 24 25 20 29 30 29 27 26 25 25 26
39 39 40 41 41 40 39 39 34 31 25 24 19 20 24 25 29 30 32 32 33 35 35 32 29 30 30 30 32 31 35 33 27 24 26 27 24 25 26 30 26 27 25 25
41 41 41 40 40 40 40 41 39 34 26 28 25 24 25 22 23 25 31 30 37 37 34 31 25 22 28 24 25 27 30 31 28 24 22 19 24 25 27 28 20 27 25 24
42 42 41 40 40 41 40 40 40 34 28 30 29 23 23 25 25 24 27 27 31 33 29 28 26 26 28 25 27 25 25 27 25 25 23 23 25 26 27 14 22 28 26 25
42 42 41 41 41 41 40 40 39 37 32 31 31 33 29 29 27 23 27 28 30 28 25 25 26 29 30 30 27 27 24 25 23 24 20 16 27 23 21 29 30 29 27 27
42 42 42 41 41 41 42 40 40 40 33 31 35 34 35 33 30 29 29 35 30 30 26 27 28 29 30 30 24 28 23 30 23 25 22 28 27 27 28 28 27 28 27 27
42 42 41 41 41 41 40 41 40 37 34 31 32 33 35 36 33 31 29 35 31 31 32 30 30 30 31 26 26 27 27 29 25 25 25 25 28 27 27 27 27 28 28 26
42 42 41 41 40 40 40 38 40 37 34 25 32 30 31 32 30 31 32 31 32 33 33 31 31 30 33 29 27 24 26 28 27 25 26 25 25 27 28 28 28 27 28 27
41 40 40 40 40 41 41 40 41 41 37 28 28 31 31 31 31 31 31 31 31 30 27 28 29 34 32 29 28 24 27 25 24 20 27 24 25 27 28 26 26 27 26 25
41 40 39 41 41 41 40 34 40 41 40 31 24 32 32 31 32 32 31 32 31 31 27 29 32 35 30 26 21 28 30 31 32 27 26 25 26 27 27 26 27 27 25 23
40 40 41 41 42 40 38 36 40 43 39 32 26 26 33 30 32 32 31 30 29 31 29 29 31 33 31 24 18 27 31 32 32 30 27 25 28 24 26 26 25 24 22 21
40 41 41 42 43 40 38 42 42 41 35 34 29 24 30 32 29 29 33 30 31 30 30 32 31 33 29 22 26 28 29 30 30 29 27 26 27 27 24 20 19 19 19 18
40 40 42 40 37 36 38 42 42 43 39 30 30 25 26 36 30 32 33 32 23 32 28 30 30 32 21 26 27 28 30 30 29 27 22 21 20 20 20 19 19 20 18 17
41 41 36 32 37 43 42 39 35 34 36 35 27 28 25 33 29 28 28 31 26 25 29 32 28 23 27 29 29 30 30 28 27 22 21 20 20 19 18 18 17 15 13 11
38 34 33 40 43 40 36 30 30 28 27 30 28 28 25 34 26 25 30 25 27 22 28 29 29 22 24 29 28 24 25 24 23 22 22 21 20 19 18 16 14 12 10 9
37 39 40 39 36 33 29 24 26 29 22 29 29 27 29 31 35 27 29 24 25 20 31 26 23 24 21 22 22 22 23 22 22 21 21 21 20 19 17 14 12 11 10 6
40 37 32 32 32 26 23 17 22 19 26 30 28 24 32 29 31 26 29 23 22 32 23 23 25 23 21 22 21 21 22 21 20 19 18 17 16 15 13 11 6 6 5 2
32 30 26 27 24 25 23 23 24 28 29 29 29 27 26 27 25 29 26 26 29 24 17 24 24 23 22 22 22 21 20 18 17 15 14 11 9 7 4 3 -0 0 -2 -3
31 31 25 21 28 33 32 33 32 34 31 28 27 28 28 26 27 28 27 24 22 21 25 26 25 23 22 21 20 18 16 14 12 10 8 6 6 7 4 1 2 2 -1 -2
31 31 31 33 29 31 32 32 32 35 31 29 30 26 22 23 27 26 21 22 17 25 26 26 24 22 20 19 17 16 14 13 12 10 10 10 7 7 7 4 3 1 1 -2
31 30 31 32 32 32 31 33 31 35 29 29 27 22 20 30 26 24 29 23 27 25 26 26 24 21 17 17 17 17 18 14 13 13 11 7 7 9 10 10 8 10 12 5

GFSNW_sfc_dewp_102.txt.gz
Dewpoint
45 41 41 41 41 39 37 36 31 36 38 31 32 26 17 21 13 17 16 18 18 19 19 19 19 17 18 25 27 21 31 27 21 21 22 22 31 32 30 24 21 28 28 28
42 41 41 41 39 40 38 34 29 34 37 23 25 22 15 15 19 20 21 21 22 21 20 20 24 24 28 30 28 25 30 23 18 16 27 31 32 34 34 33 33 29 27 28
41 41 41 39 40 40 37 36 26 28 32 29 25 23 21 19 23 22 23 21 23 25 24 24 22 22 25 30 29 30 34 27 22 17 18 23 25 30 32 32 28 28 26 28
41 41 39 39 39 40 38 32 28 29 25 25 24 25 24 21 20 24 23 22 25 24 22 22 22 26 27 29 31 32 34 28 28 27 25 24 23 32 33 32 32 27 27 26
41 40 39 38 39 40 37 30 25 27 29 24 21 25 24 21 22 24 23 24 25 26 24 23 22 27 26 26 32 34 31 27 30 27 29 28 29 33 28 27 30 30 27 25
41 40 38 40 40 40 35 34 31 29 28 25 25 26 25 23 25 26 26 26 29 28 28 29 31 31 31 29 28 27 29 29 30 27 31 32 24 28 25 25 25 24 22 27
40 39 40 41 41 41 37 35 32 29 23 21 23 26 25 26 27 17 27 29 30 31 35 35 34 34 33 33 31 31 30 31 32 28 29 16 28 32 26 24 24 24 24 28
40 41 41 41 41 42 38 38 33 29 25 26 23 24 26 25 26 26 26 31 32 34 35 31 27 30 30 30 31 35 35 33 29 27 24 26 25 24 24 26 22 26 23 25
41 41 41 41 41 42 40 39 37 33 27 27 28 25 24 22 22 23 27 31 35 35 33 29 24 25 28 26 29 28 32 35 31 28 20 17 22 22 25 27 17 27 24 22
42 41 41 41 41 42 40 38 38 33 25 29 29 25 23 27 25 23 26 27 30 31 26 23 24 27 30 24 26 25 24 27 23 24 21 22 23 24 26 16 18 27 24 22
43 42 41 43 42 42 40 38 38 33 24 29 32 33 28 26 27 22 25 27 28 27 23 24 25 27 30 27 27 27 23 23 20 21 18 15 25 21 20 26 28 27 24 23
43 42 43 42 42 42 41 36 40 38 30 28 34 33 31 31 30 28 29 32 28 28 25 26 28 27 28 27 23 28 22 27 22 22 20 26 26 25 27 28 26 27 24 23
43 42 42 42 42 42 41 39 37 34 29 27 30 31 34 37 35 32 28 33 30 30 32 30 29 30 30 26 23 23 25 28 23 22 24 25 27 27 27 27 27 26 25 25
43 42 41 41 41 41 41 35 37 36 32 23 27 32 30 33 32 31 31 30 31 32 32 29 29 29 32 28 25 21 25 26 25 23 24 24 25 27 27 26 26 26 25 24
41 41 41 41 41 41 40 38 38 40 33 25 26 31 32 30 30 30 30 30 29 29 26 26 30 33 32 30 25 22 27 24 21 19 25 23 24 27 27 26 25 25 23 23
41 40 40 40 42 42 37 28 38 40 40 28 21 30 30 31 32 32 32 31 30 30 27 27 30 35 29 25 21 27 29 27 29 23 26 24 25 27 26 25 25 24 23 22
41 41 41 41 42 40 37 33 40 42 39 30 26 24 31 33 32 32 31 30 29 30 28 28 32 31 29 18 11 27 31 27 26 25 25 23 23 24 26 24 23 24 22 21
41 42 42 43 42 39 36 39 42 42 35 33 21 22 27 34 28 27 32 29 30 28 28 30 30 29 22 14 23 26 28 28 29 28 27 25 25 25 22 20 19 18 17 17
41 42 42 38 35 32 34 40 42 41 38 29 25 19 22 34 30 31 31 30 21 29 26 28 31 29 20 17 23 23 27 27 25 24 25 26 24 20 19 19 19 17 16 14
42 39 34 30 35 40 41 37 32 34 35 34 25 26 23 34 26 26 26 28 24 25 27 31 25 23 27 29 30 30 30 30 31 22 22 22 20 19 19 17 16 14 12 11
36 34 33 40 42 39 35 29 29 26 26 28 26 28 22 31 24 24 29 23 25 22 27 28 27 22 24 29 29 28 28 24 24 23 22 21 19 18 16 14 13 10 8 9
37 38 40 39 35 32 28 25 25 27 22 26 28 25 28 29 33 26 27 23 24 19 32 28 23 22 26 27 26 23 22 22 21 21 21 20 19 17 15 13 11 10 8 4
40 37 32 32 31 24 22 18 21 16 23 27 25 22 31 28 29 23 25 22 16 31 26 25 22 22 23 22 22 21 21 20 19 19 18 17 16 14 12 9 4 5 3 -2
32 30 25 25 22 24 20 19 18 24 24 26 24 23 25 24 23 22 21 23 29 24 18 20 21 22 22 22 22 20 18 16 16 14 12 10 8 4 1 2 -0 0 -3 -6
30 31 22 24 25 30 32 33 27 27 26 26 26 25 26 22 26 27 26 24 22 19 17 21 22 23 21 20 19 16 13 11 11 10 8 5 4 4 0 -5 -3 -2 -6 -6
31 30 29 30 29 29 31 32 31 34 28 26 27 24 19 20 21 25 19 21 15 21 25 23 23 21 17 18 17 16 14 11 9 7 6 6 4 5 4 -1 -2 -4 -4 -5
28 30 29 31 31 29 31 32 31 32 27 28 25 20 17 27 23 21 22 16 22 25 25 24 23 20 14 13 14 13 13 11 9 7 7 4 2 4 8 8 5 7 9 1

GFSNW_sfc_dewp_105.txt.gz
Dewpoint
46 44 43 42 40 40 38 36 30 36 38 31 31 26 23 19 12 16 17 18 20 20 19 19 18 18 17 20 26 22 26 25 20 17 18 19 20 24 33 26 23 25 25 22
44 43 42 42 41 40 36 31 30 34 37 25 27 26 16 21 20 21 21 21 22 22 20 20 23 23 28 29 27 24 28 23 16 15 27 29 31 33 33 35 33 25 23 23
43 42 42 41 40 40 38 33 26 29 32 29 25 22 20 21 23 24 23 22 24 24 23 24 22 24 24 29 28 31 30 24 20 13 15 21 26 28 30 32 29 25 25 23
43 41 41 40 41 41 38 34 27 28 26 25 25 25 24 21 19 25 23 23 25 23 21 21 21 23 25 27 29 31 33 26 27 26 23 25 29 30 31 30 32 24 25 22
41 40 40 40 41 41 36 32 25 30 28 26 25 25 23 21 22 23 23 23 24 25 24 22 21 23 25 24 29 32 34 23 28 25 27 30 25 26 23 28 29 28 24 20
40 39 38 40 41 41 34 34 31 30 25 22 25 24 25 24 25 26 25 25 25 27 28 29 29 29 29 29 29 29 29 26 27 25 29 24 15 24 24 24 24 23 21 23
40 39 41 43 42 40 35 35 32 27 23 22 24 28 26 25 25 19 26 27 28 30 32 34 33 32 31 32 32 34 29 28 28 27 28 14 25 30 27 23 23 23 25 23
40 41 42 43 43 42 38 37 32 29 25 24 24 27 26 24 27 25 23 29 31 32 32 30 26 27 29 31 33 35 34 30 29 26 21 24 27 23 23 25 20 24 22 24
41 42 42 42 44 43 39 38 36 32 27 26 28 23 24 22 22 23 25 29 31 32 32 29 23 23 26 26 29 30 30 33 30 26 20 16 21 21 24 25 14 24 21 20
42 41 42 43 43 42 39 37 36 32 28 28 28 24 24 26 25 23 25 26 29 29 25 26 24 25 29 22 23 26 26 27 22 23 20 21 22 23 28 16 17 24 22 20
42 42 43 43 43 43 39 37 38 32 27 28 32 32 25 24 26 21 24 24 26 26 23 24 24 24 27 26 26 25 21 22 19 21 18 16 23 21 19 25 26 24 22 21
43 43 43 42 43 43 40 35 38 36 30 28 33 32 30 27 28 28 30 26 27 26 25 27 27 24 25 23 18 27 21 24 20 21 18 24 25 25 28 28 25 24 22 22
43 43 42 42 43 43 41 36 35 33 27 27 30 30 35 35 33 31 28 31 30 29 31 29 29 27 29 25 21 22 25 27 21 20 23 24 24 25 25 25 24 25 25 23
43 42 42 42 42 42 39 36 36 34 30 24 27 31 29 33 35 32 31 30 30 31 31 28 26 28 33 27 24 21 24 25 22 21 23 23 24 25 25 25 26 25 24 23
42 41 41 41 41 42 39 37 37 38 29 23 25 29 31 31 32 30 30 30 29 28 26 26 29 33 32 26 24 20 27 23 18 18 22 22 22 26 26 24 23 23 23 23
41 41 40 42 42 40 35 29 38 39 36 26 20 29 29 30 30 30 30 30 30 29 27 26 29 36 28 24 20 26 25 28 26 24 26 24 25 26 26 24 23 23 22 20
42 41 42 42 41 39 35 31 40 41 36 27 21 23 30 33 31 31 31 30 28 29 28 27 32 32 27 21 17 26 25 24 25 25 24 23 24 23 25 25 25 23 18 16
41 42 42 42 40 38 34 37 43 39 33 31 20 22 29 34 27 27 32 28 29 28 26 28 30 32 22 18 24 28 28 26 25 26 27 23 24 24 23 21 18 17 16 15
42 42 40 37 35 32 34 41 40 38 33 25 21 19 24 32 29 29 29 29 20 28 25 27 31 27 19 17 25 25 26 25 25 24 23 23 22 20 19 18 17 16 14 13
41 37 31 28 32 39 41 35 28 28 30 33 23 25 22 31 25 25 25 26 24 23 27 29 25 22 26 24 25 26 29 24 25 24 23 23 20 19 19 18 16 14 13 12
35 33 32 39 42 38 34 29 26 26 23 26 25 25 21 30 23 23 27 22 24 21 26 28 25 20 24 28 29 31 32 29 26 23 23 22 21 19 16 14 13 10 9 9
36 39 40 39 35 32 26 23 24 26 21 23 23 24 27 29 31 25 26 22 22 18 32 28 21 19 26 27 26 28 23 24 23 22 21 20 18 17 15 12 10 9 7 3
40 37 32 30 31 23 21 15 21 15 22 25 23 21 27 26 27 23 24 15 15 29 24 24 20 24 26 24 24 22 22 21 21 20 19 17 16 14 12 8 2 3 2 -5
32 28 24 24 21 23 17 18 17 23 22 24 24 23 25 24 23 18 13 20 28 17 17 19 18 23 23 22 22 20 19 18 17 15 14 11 8 2 -1 0 -3 -0 -4 -8
29 30 21 23 23 28 30 32 29 27 24 26 25 25 25 21 25 27 23 21 19 16 15 15 20 22 22 21 19 16 14 12 11 9 7 2 2 3 -2 -8 -6 -3 -7 -8
30 29 27 29 28 28 30 31 29 32 28 25 27 24 19 22 19 24 16 17 14 14 16 21 20 20 19 19 18 16 13 11 8 7 6 5 2 3 2 -3 -5 -8 -6 -8
26 28 28 31 31 29 30 31 32 32 26 21 26 16 17 25 22 22 21 13 20 21 24 25 24 21 15 14 14 14 13 10 8 5 6 2 1 3 6 5 2 4 6 -2

GFSNW_sfc_dewp_108.txt.gz
Dewpoint
49 48 47 46 45 43 41 36 26 37 39 30 29 26 24 20 14 19 20 21 18 18 19 17 18 18 17 23 24 21 23 24 19 17 19 23 19 21 25 20 23 24 23 21
48 46 46 44 43 42 38 33 32 35 37 26 27 27 19 21 20 21 21 22 21 21 19 18 21 23 26 28 25 24 28 22 15 14 26 30 27 31 33 31 29 27 17 18
46 45 44 43 43 42 38 32 26 31 34 29 27 22 22 20 24 23 22 21 23 24 23 24 21 24 25 28 27 29 27 23 18 12 10 18 22 26 30 29 24 23 20 23
45 44 42 43 44 42 38 33 26 30 27 22 26 25 24 21 20 24 22 22 24 23 21 22 21 22 23 25 27 28 28 23 24 24 23 24 28 26 26 30 30 25 23 20
43 41 42 43 43 42 35 31 28 30 28 28 26 26 23 21 22 23 21 21 24 25 23 22 20 24 23 23 26 31 35 23 26 22 25 29 23 25 23 23 26 24 22 19
42 42 43 43 43 41 34 33 31 28 22 23 23 24 24 23 25 26 24 24 25 26 27 28 26 26 29 30 29 30 29 26 25 22 26 24 18 23 23 21 22 23 20 21
41 41 42 42 42 40 34 34 31 28 23 21 24 25 25 24 24 18 26 26 26 29 32 33 32 31 29 29 30 33 29 27 27 24 25 14 23 30 24 20 21 22 22 22
41 43 43 43 43 41 36 35 31 27 22 22 26 26 26 25 28 25 23 27 30 32 31 29 25 27 29 30 34 34 33 29 25 25 20 21 26 22 22 23 19 22 21 23
44 44 45 44 43 41 38 37 35 31 27 25 26 24 23 22 22 23 25 28 30 29 29 27 20 19 25 26 29 33 34 33 28 27 18 15 20 21 24 26 14 23 21 20
43 44 45 44 43 41 38 36 35 32 28 29 26 22 23 26 24 22 25 26 28 28 23 21 23 23 27 21 21 24 26 28 23 23 19 19 21 23 27 18 16 22 20 18
43 44 44 44 43 41 38 36 37 31 28 29 32 30 26 25 24 19 23 22 24 25 22 24 23 23 24 25 25 24 21 21 19 20 19 16 22 23 21 23 24 22 20 19
43 44 44 44 43 42 39 34 36 35 31 29 33 32 30 24 26 27 30 24 27 25 25 26 26 24 26 21 16 25 21 22 19 19 17 23 24 24 27 25 23 22 20 20
43 44 44 44 43 42 38 35 34 32 30 29 30 29 34 34 31 31 28 29 29 28 30 29 27 25 30 22 21 23 26 26 20 19 22 22 22 23 25 24 23 23 22 20
43 43 43 43 43 42 40 36 35 33 29 25 27 30 31 33 33 32 30 29 30 30 30 28 28 26 33 25 22 20 23 24 20 20 22 22 23 23 23 24 23 22 22 21
41 41 41 42 42 41 39 37 37 36 29 25 23 28 30 31 33 30 30 29 28 28 25 25 29 32 29 24 24 19 27 24 17 12 20 20 21 21 24 22 21 22 21 21
42 41 42 42 41 38 34 30 37 38 32 26 21 28 28 29 29 29 29 30 29 28 27 26 28 35 26 15 18 26 24 28 26 23 24 22 25 24 23 23 23 22 20 19
41 41 42 42 41 39 34 31 35 41 34 26 21 25 28 31 31 31 30 30 28 28 28 26 32 32 28 14 14 25 24 26 25 25 24 22 22 21 23 23 23 20 16 14
42 42 41 40 40 38 34 37 41 37 32 28 19 24 29 33 27 26 30 28 28 28 26 27 29 30 24 17 21 24 24 23 23 26 25 23 24 23 22 20 18 16 15 13
42 40 38 36 34 32 34 40 38 37 31 23 21 21 22 31 29 29 28 28 20 28 24 26 32 26 16 17 25 25 24 24 25 24 23 23 21 21 20 18 17 15 14 12
39 36 30 25 34 39 40 33 27 27 30 30 22 25 27 31 24 24 25 26 23 24 29 29 25 19 26 23 26 26 26 25 23 22 21 21 20 19 18 17 17 15 13 12
34 32 33 39 42 35 30 23 21 23 22 25 24 24 24 29 22 26 28 23 25 20 25 27 23 19 25 26 26 28 25 24 23 23 23 22 20 19 17 16 15 14 12 10
35 38 39 38 34 31 24 23 25 24 21 23 22 23 26 29 30 25 27 21 21 16 31 26 20 20 27 28 28 30 26 27 25 23 22 21 20 18 16 14 11 10 8 3
39 34 33 28 29 21 13 14 21 17 22 23 22 21 26 26 27 22 23 13 13 28 26 23 20 25 27 27 25 25 24 24 22 21 20 19 17 15 12 8 3 2 -0 -7
31 27 23 21 19 22 17 17 16 21 21 23 23 23 24 23 22 16 12 17 23 13 15 18 18 25 25 25 25 24 22 21 20 19 17 13 10 3 0 0 -2 -1 -3 -11
29 29 21 22 23 27 24 29 30 30 23 25 25 25 26 24 22 23 18 19 14 14 14 13 16 23 23 22 21 19 17 17 15 13 10 6 2 1 -4 -10 -7 -2 -5 -10
29 28 27 28 27 28 30 30 30 32 30 25 26 26 21 22 17 23 13 16 13 13 17 18 15 20 20 20 19 17 15 14 10 8 7 4 2 3 1 -4 -7 -10 -6 -8
26 26 28 30 30 28 29 31 31 32 29 19 25 15 16 23 21 20 19 13 13 14 21 25 21 17 16 16 15 15 13 11 9 6 5 1 0 2 4 3 0 2 4 -5

GFSNW_sfc_dewp_111.txt.gz
Dewpoint
49 52 50 48 46 43 41 38 30 39 41 32 30 25 25 20 14 19 18 19 14 15 18 16 16 15 16 22 24 19 23 25 18 17 19 25 20 19 25 21 18 23 23 22
50 50 48 47 44 42 39 34 34 37 37 26 26 27 20 19 18 20 20 20 21 20 18 15 19 20 26 27 25 23 28 23 15 15 28 28 23 25 28 32 27 21 20 22
50 48 47 45 43 43 37 34 28 33 35 32 25 24 21 20 24 22 21 21 23 23 20 22 20 22 25 28 27 29 30 25 19 7 4 13 20 24 27 29 24 20 24 21
49 47 45 43 44 43 38 35 29 30 27 27 27 27 24 20 21 23 21 21 23 21 19 21 20 22 24 24 27 27 30 22 24 24 21 22 27 25 25 22 25 24 22 19
47 46 44 44 44 42 38 31 29 30 28 29 29 27 24 21 22 23 20 21 24 23 21 19 21 23 24 24 27 30 32 24 26 21 22 27 22 25 25 23 26 23 21 18
46 45 44 45 44 41 36 35 33 30 28 25 24 25 24 24 27 24 25 26 25 25 25 27 25 26 28 28 28 31 30 27 24 21 25 24 21 23 23 23 24 25 21 20
45 44 44 44 44 39 36 34 32 29 23 21 19 24 24 24 24 25 26 28 27 29 33 33 32 31 29 29 29 32 30 28 27 23 25 17 24 28 23 21 21 22 21 21
44 44 44 44 44 41 36 35 31 27 24 23 25 24 25 27 28 28 27 28 30 34 33 28 26 27 28 29 31 33 32 30 24 24 21 22 24 23 24 23 19 22 22 23
43 43 43 44 45 41 37 37 36 31 26 24 26 25 25 23 24 23 27 29 32 32 30 26 23 21 24 25 30 35 34 32 26 24 19 15 21 21 24 26 19 22 21 21
44 45 45 45 43 41 37 37 36 33 29 29 27 24 24 25 23 22 25 27 29 29 26 25 23 23 27 20 20 23 25 27 24 25 19 19 20 22 26 21 21 22 19 20
44 44 44 43 41 40 37 36 36 33 31 30 32 29 27 26 23 21 25 27 26 27 24 24 24 24 26 25 24 24 22 21 21 23 19 16 21 25 23 24 24 21 20 20
44 44 44 43 42 40 37 35 36 35 33 31 34 33 31 26 26 30 30 25 28 30 26 25 27 25 25 24 20 24 22 23 20 19 18 23 25 25 27 24 22 21 20 19
45 44 44 42 42 41 37 36 36 35 32 30 30 30 34 34 32 34 28 32 30 30 31 30 30 25 30 22 21 23 26 26 19 20 21 22 23 25 24 24 23 22 21 20
44 44 44 43 42 42 39 37 37 33 30 28 28 31 32 34 34 33 32 32 32 32 32 30 30 26 31 25 23 22 25 24 20 20 22 21 22 24 24 23 23 22 21 20
43 43 43 42 42 41 39 39 38 36 31 27 25 30 31 34 33 32 32 32 30 29 28 29 29 32 29 27 23 23 27 23 20 20 22 21 21 24 24 22 22 21 20 19
43 42 41 41 40 36 35 31 36 39 32 29 26 29 30 31 32 32 32 31 30 29 28 28 32 34 29 23 22 25 26 29 27 23 25 24 24 24 23 22 23 21 19 18
43 43 43 42 42 40 35 31 37 40 34 30 26 27 28 31 31 32 31 31 30 30 29 29 33 31 28 23 22 25 26 27 26 25 24 23 23 22 24 22 22 19 15 14
43 41 41 40 40 38 37 39 40 36 30 28 25 25 30 32 29 30 31 30 30 29 27 29 31 30 26 23 23 25 26 25 25 26 24 22 23 23 21 19 16 14 12 10
40 38 37 36 35 34 37 41 37 37 33 26 24 23 23 32 30 31 31 29 28 29 28 29 30 28 24 22 24 24 24 23 25 23 23 22 21 20 19 17 16 14 12 10
37 36 31 29 36 39 38 33 28 29 30 30 26 26 27 32 28 29 29 29 28 25 30 31 28 26 26 26 26 24 24 25 23 22 20 21 20 19 18 17 16 14 12 11
35 34 33 39 41 35 30 24 24 26 23 26 26 26 28 31 27 28 29 28 28 23 27 28 26 24 24 26 27 27 27 24 23 22 22 21 20 19 18 17 16 14 12 12
37 37 39 37 34 28 23 23 24 23 21 25 26 26 27 31 32 30 28 24 25 20 31 28 24 24 26 26 27 27 25 23 24 23 22 21 20 19 18 16 15 14 12 9
37 33 32 28 28 19 15 14 21 22 25 27 28 27 29 30 28 26 25 20 20 28 25 22 23 25 27 28 28 27 26 25 23 23 22 21 19 17 16 13 10 8 6 4
31 26 22 19 20 21 20 21 21 24 25 27 28 27 28 27 26 22 19 21 26 20 17 20 24 26 28 28 28 26 25 24 23 22 20 18 14 10 9 8 5 3 2 -1
28 27 21 22 26 28 28 28 30 30 27 28 29 28 28 25 23 24 21 21 18 19 20 23 23 27 26 25 26 24 22 21 20 19 16 12 10 8 3 2 4 4 1 1
28 28 27 28 28 29 31 31 31 31 31 28 29 27 23 23 22 21 17 18 17 22 23 26 21 24 25 24 23 22 20 19 16 14 13 10 7 7 5 3 4 3 4 3
26 26 28 31 30 29 30 32 32 33 29 26 26 18 20 25 21 21 22 21 23 22 27 25 21 22 21 21 20 18 17 15 13 11 10 7 6 6 6 7 5 5 7 5

GFSNW_sfc_dewp_114.txt.gz
Dewpoint
48 49 50 50 48 46 44 40 30 39 44 34 34 28 23 22 11 14 13 13 12 12 13 13 12 12 12 16 21 16 19 23 15 13 16 20 16 17 20 20 18 19 21 25
47 48 50 50 47 46 42 35 34 42 41 30 29 25 21 16 12 13 14 15 15 18 15 16 16 17 23 25 22 18 25 20 16 16 28 26 28 23 20 26 29 23 22 25
47 48 49 49 46 46 42 37 31 34 37 37 29 25 21 17 18 17 19 20 20 20 18 18 17 18 24 27 26 27 29 23 22 12 9 13 18 25 27 27 25 22 26 26
47 48 48 47 46 46 42 39 32 32 30 31 28 26 22 16 17 19 20 21 19 17 16 17 16 19 25 25 28 26 29 21 26 25 20 20 25 26 25 26 25 24 27 23
47 48 48 46 46 45 41 36 29 29 30 29 29 26 21 17 20 21 18 18 19 19 16 16 18 22 23 27 25 25 27 23 28 25 24 26 28 26 27 27 23 26 25 20
47 47 48 46 46 44 40 36 32 31 28 28 27 26 21 22 29 24 20 21 22 21 20 23 22 24 26 27 28 30 32 29 28 23 22 26 24 24 25 25 25 26 25 23
47 49 46 46 45 43 38 34 33 32 26 25 21 18 21 22 25 34 25 26 25 28 32 32 31 30 28 28 27 29 32 30 29 24 26 19 26 29 25 23 24 25 24 22
47 46 46 44 43 42 39 35 32 31 27 23 21 20 22 23 29 30 33 28 30 33 30 28 26 29 29 29 29 30 34 32 27 24 21 23 25 26 25 25 22 23 23 23
46 45 45 45 42 41 39 37 38 32 31 28 24 22 24 22 25 26 30 32 35 33 30 28 26 22 24 26 30 34 35 33 29 24 18 16 23 22 25 25 23 23 23 23
44 44 46 45 42 41 39 40 40 34 35 28 26 23 23 24 23 21 27 30 31 31 29 28 24 23 25 22 22 26 29 31 25 23 24 21 21 23 26 23 24 24 24 26
44 44 45 45 43 40 38 39 39 36 36 32 30 29 27 26 23 23 28 28 28 27 26 25 25 26 27 24 23 25 25 26 25 24 23 18 23 25 25 26 26 25 26 26
44 44 44 43 41 39 41 36 36 38 34 31 34 34 32 26 26 29 31 28 29 32 27 27 27 26 27 26 23 25 25 26 25 23 22 24 26 27 28 26 26 26 25 24
44 44 44 43 41 40 39 39 37 34 34 29 26 29 34 34 35 36 28 32 32 32 34 31 29 26 28 24 24 24 26 28 24 24 23 23 25 25 26 26 27 25 24 23
44 44 43 43 42 41 40 37 37 33 28 29 29 32 33 35 34 35 35 35 35 35 34 32 30 28 31 29 26 25 28 27 23 22 23 23 24 26 26 26 25 24 24 23
44 44 43 43 42 42 41 43 39 36 27 25 27 32 34 33 33 33 34 34 33 31 31 31 29 31 30 32 26 27 28 28 25 27 26 26 26 26 26 25 24 23 22 20
43 43 42 41 38 37 37 38 36 37 31 26 28 32 30 32 33 33 33 32 32 31 31 30 33 32 32 30 28 28 29 31 29 27 28 28 27 26 25 24 24 22 21 19
43 43 43 43 43 43 36 34 39 38 36 32 26 26 31 32 32 34 33 34 32 30 30 31 32 32 32 34 30 28 28 30 28 26 25 24 25 23 24 23 23 22 18 17
42 41 41 42 42 40 36 39 38 36 30 29 27 26 30 33 29 30 34 31 31 30 28 32 31 33 33 29 28 27 28 27 26 25 25 24 24 23 22 21 19 17 15 13
38 38 40 41 39 37 37 41 37 39 34 30 28 25 27 33 31 35 33 32 31 32 30 30 31 30 29 31 27 26 26 26 26 24 22 22 22 21 20 18 17 15 12 9
39 38 35 33 38 40 39 36 36 34 34 32 29 29 28 32 33 32 32 33 29 26 30 33 29 30 28 28 28 27 26 25 24 22 21 21 21 20 19 19 17 14 9 9
39 36 35 39 41 37 34 32 29 28 26 28 29 28 30 35 31 31 34 31 31 23 28 28 26 27 28 28 26 26 26 25 24 23 23 22 21 20 19 18 17 14 11 13
39 38 40 39 34 30 26 25 26 25 23 29 30 30 30 36 36 32 31 26 30 22 32 29 24 29 27 27 27 26 27 25 23 23 23 23 21 21 19 18 17 15 16 16
37 33 33 29 28 24 21 20 25 27 30 31 32 32 34 34 31 32 28 26 26 31 27 24 29 28 27 28 28 27 25 25 23 23 22 21 21 21 21 20 19 16 14 13
33 30 24 25 24 26 27 28 30 31 33 33 33 33 33 34 30 32 26 30 28 24 21 20 31 29 30 32 30 26 27 28 27 25 25 23 21 20 19 17 15 12 10 10
32 29 24 26 30 32 32 33 33 32 35 34 32 32 31 30 29 28 26 23 21 23 26 33 32 30 31 30 31 31 28 27 26 25 23 20 17 16 14 13 13 12 9 9
31 30 29 32 33 32 33 34 33 36 36 35 33 29 28 26 27 23 20 20 19 30 34 33 30 29 31 30 30 29 28 27 26 24 21 19 16 14 12 11 10 9 10 10
29 30 33 33 33 32 33 36 35 37 35 32 30 26 24 27 25 22 27 30 33 33 32 33 31 29 30 29 27 25 25 24 23 21 19 17 15 11 10 9 10 11 12 13

GFSNW_sfc_dewp_117.txt.gz
Dewpoint
46 47 48 50 50 48 46 41 32 43 44 34 35 34 32 32 20 15 15 17 16 16 15 13 12 13 10 15 15 16 15 20 15 9 8 12 13 14 16 19 15 21 17 25
44 45 46 48 49 47 43 35 34 42 42 32 33 32 30 26 20 14 16 16 17 15 15 15 14 16 20 20 19 16 19 17 14 13 17 23 25 22 16 22 26 23 23 26
45 45 46 48 48 47 43 36 30 34 35 37 35 32 28 24 21 17 17 16 16 18 14 17 18 18 23 24 21 27 26 23 23 15 19 20 21 21 23 23 23 20 24 29
44 45 45 47 48 47 45 38 33 33 29 31 34 32 29 24 19 17 17 18 18 16 16 17 19 18 22 26 28 25 25 21 26 22 18 17 21 24 23 28 26 26 29 25
44 45 45 46 48 47 45 36 35 32 33 32 33 33 29 26 21 21 19 18 16 18 19 18 16 18 23 25 22 24 25 23 28 24 23 24 28 28 26 30 29 26 27 24
45 45 45 46 47 46 43 42 39 34 33 31 32 33 29 27 27 22 18 19 20 21 21 17 18 20 23 25 26 25 29 30 28 25 21 23 26 29 28 29 25 28 25 25
44 45 45 46 47 47 41 41 36 36 31 30 29 28 27 25 27 35 22 24 23 24 27 26 26 25 25 26 26 29 34 31 29 25 25 19 27 29 28 28 27 26 25 27
45 45 45 46 47 47 41 40 36 37 33 29 28 27 25 23 26 27 31 24 27 31 29 27 24 26 28 27 27 28 35 32 29 25 22 25 25 27 26 26 24 28 25 23
44 44 46 46 47 47 42 43 45 39 35 29 28 25 24 24 30 28 29 34 34 33 28 26 24 22 23 25 26 27 29 33 29 26 19 17 24 25 26 26 25 25 25 24
44 45 46 47 47 46 42 42 46 39 38 28 28 24 28 30 26 24 30 32 32 32 27 27 25 23 22 24 24 27 30 31 27 24 24 24 23 23 26 25 26 26 26 27
44 45 47 46 44 44 40 42 45 43 40 35 34 31 29 25 25 25 28 29 29 28 26 26 24 27 29 27 25 25 25 28 28 25 25 23 24 25 25 29 29 28 29 31
44 44 43 44 43 43 42 41 45 42 35 34 36 35 33 30 25 26 31 27 29 32 26 28 30 29 29 26 24 25 25 28 28 25 25 26 27 30 30 29 28 28 28 27
43 43 43 43 44 44 44 42 40 37 35 31 30 31 34 35 36 36 28 29 31 34 36 33 31 27 27 26 25 26 27 27 27 25 25 24 26 27 27 28 28 27 27 26
44 43 43 43 44 43 41 36 36 35 30 30 29 33 33 33 34 33 35 35 36 35 34 32 32 29 30 30 28 27 31 28 26 25 25 24 26 27 28 27 27 26 26 26
44 44 43 43 43 42 41 39 37 36 27 26 28 32 31 31 33 33 35 36 36 33 32 32 30 31 31 32 29 29 29 32 28 30 27 27 28 28 27 26 26 25 23 22
42 43 42 42 41 41 33 40 36 34 32 25 27 29 29 30 31 31 32 34 34 31 30 31 31 31 31 30 28 30 32 33 31 29 29 30 28 27 26 25 25 24 22 19
43 43 43 42 41 40 34 33 35 38 34 28 25 24 28 30 29 29 28 32 31 29 30 30 30 31 32 31 28 30 31 32 30 28 27 27 27 26 25 25 24 23 19 16
43 43 42 41 41 39 32 37 39 40 28 27 26 25 28 30 27 28 31 28 28 28 28 30 29 32 32 28 31 29 28 28 27 27 25 26 25 24 23 23 22 20 17 14
41 42 41 38 36 30 32 40 40 39 32 29 28 26 27 31 27 30 29 29 31 28 30 29 28 30 29 34 30 27 28 26 26 25 24 24 24 23 22 22 20 18 16 12
40 37 35 34 36 41 41 36 38 35 33 29 29 28 28 28 30 30 29 29 27 26 29 30 28 30 30 29 29 28 27 27 26 24 23 23 23 22 22 20 20 18 15 10
37 37 36 36 39 35 34 35 32 29 26 28 29 30 31 32 30 30 31 29 28 20 27 26 25 27 29 29 28 28 27 26 25 25 25 25 24 22 21 21 19 15 12 12
39 36 38 37 34 33 29 27 28 24 24 29 30 29 27 34 34 30 30 25 29 24 32 27 24 30 29 27 27 27 27 26 25 25 24 25 23 23 22 20 18 16 18 20
36 33 33 30 30 29 28 23 26 28 30 33 34 34 32 33 31 31 29 28 27 30 28 25 30 29 28 27 27 27 27 26 25 25 25 24 23 23 24 24 23 21 19 17
35 33 27 29 27 26 28 31 33 32 35 36 35 33 32 34 31 34 30 29 28 24 23 23 32 30 32 33 29 27 28 29 29 29 29 28 26 26 25 22 20 19 16 16
33 30 25 28 32 33 32 35 34 36 37 35 33 32 31 30 31 29 26 25 23 22 26 31 32 32 33 33 34 32 31 29 29 29 26 24 23 21 20 19 18 17 15 14
32 31 32 35 32 32 33 34 35 37 37 35 33 30 29 28 28 23 22 19 20 30 32 32 31 32 33 33 33 32 32 31 30 27 25 22 21 19 19 17 16 14 14 14
29 31 34 34 34 32 33 38 36 39 35 33 29 29 24 28 25 23 27 30 31 31 31 32 32 31 32 32 32 31 31 30 28 26 24 22 21 17 15 13 14 14 14 16

GFSNW_sfc_dewp_120.txt.gz
Dewpoint
44 45 46 47 48 49 47 42 34 44 45 34 34 34 34 34 34 32 22 20 19 18 17 17 18 16 16 14 14 14 15 18 16 15 13 10 9 10 13 19 15 13 16 24
43 43 44 46 48 48 45 36 35 44 42 31 32 35 34 34 30 25 18 18 19 21 18 18 18 17 22 19 17 18 17 16 14 10 14 11 9 17 18 21 25 20 20 24
42 43 44 45 47 48 42 36 30 33 36 37 34 35 34 31 31 27 20 17 19 20 18 18 18 16 23 24 21 26 27 21 22 14 17 20 24 30 23 22 21 19 23 26
42 43 44 44 46 48 44 39 33 32 28 31 33 35 31 29 31 23 20 18 19 18 19 17 17 17 25 24 28 23 23 19 24 21 16 13 18 20 18 26 23 24 28 28
43 43 44 44 45 47 43 35 32 32 31 31 33 34 37 30 27 23 19 19 19 20 19 17 19 20 22 25 24 24 23 20 27 23 19 20 22 24 21 27 29 29 28 25
43 44 44 44 45 46 42 42 37 34 32 31 32 32 33 31 32 26 21 21 21 21 18 20 22 19 20 23 23 25 27 30 23 19 22 23 23 29 30 30 27 25 24 25
43 44 44 44 45 45 46 41 40 37 31 30 31 30 32 31 31 36 23 24 21 23 25 24 24 21 21 21 25 26 32 30 24 23 25 18 27 28 26 27 27 30 25 26
43 44 44 44 45 45 45 45 41 39 34 32 30 30 32 31 32 28 29 25 27 31 26 24 21 23 23 24 27 28 34 30 27 24 20 25 24 25 26 26 26 28 26 27
43 43 44 44 44 45 45 48 45 43 37 32 31 31 32 31 32 26 28 34 35 34 26 26 21 19 22 22 23 25 31 32 29 24 24 20 25 25 27 28 24 28 25 24
43 43 43 44 44 45 45 45 46 43 41 34 34 31 32 31 28 25 31 32 32 31 27 27 22 22 24 24 23 26 27 29 26 23 23 26 24 25 26 23 26 29 27 27
43 43 44 44 45 44 45 44 48 45 42 36 37 34 32 29 31 30 34 30 30 30 26 24 22 27 32 27 27 25 25 25 24 24 24 22 24 24 24 30 31 31 31 30
43 43 44 44 44 45 47 43 48 48 42 38 39 39 37 37 34 33 34 30 30 34 26 26 33 32 30 26 24 26 26 29 29 26 26 27 29 31 31 30 31 30 29 26
44 43 44 44 45 46 46 44 46 42 39 39 38 35 36 37 38 38 31 32 32 33 35 37 34 29 26 26 25 28 28 28 27 26 26 25 27 28 29 30 30 29 27 26
44 44 45 45 46 46 46 43 44 41 39 34 34 33 32 34 37 37 37 36 38 37 36 34 33 32 29 32 30 28 32 28 27 26 26 25 27 30 30 29 29 28 27 26
45 45 45 45 46 45 44 45 43 41 36 32 31 33 31 32 34 35 36 38 38 34 32 31 31 32 31 34 30 30 30 34 27 29 28 27 29 31 28 27 27 25 25 23
44 44 44 45 44 44 44 39 42 39 35 29 28 31 30 31 33 34 35 37 38 33 35 33 31 32 32 32 28 32 32 34 33 30 30 31 30 29 27 26 26 25 23 22
44 45 45 45 44 41 34 33 36 38 38 32 27 24 28 29 30 31 31 32 31 30 30 30 31 32 32 33 28 31 31 33 30 30 28 27 27 27 27 26 25 24 20 18
43 42 41 41 41 40 35 39 41 42 34 26 30 27 28 28 28 27 28 28 28 29 27 30 29 34 32 28 32 30 29 29 29 28 26 26 26 25 25 24 22 19 17 14
43 43 43 40 33 30 34 39 41 46 36 31 30 28 27 31 27 30 29 27 32 27 28 28 26 30 29 35 30 28 28 27 27 26 25 25 25 24 24 23 21 19 16 14
42 37 35 34 34 39 39 37 39 37 32 29 30 27 29 30 31 28 28 26 27 25 27 29 27 30 30 31 30 29 28 26 26 25 25 25 25 24 24 23 22 19 16 13
37 38 37 34 40 37 35 37 32 30 26 30 31 30 31 29 32 30 29 30 27 19 27 25 24 26 30 29 29 28 27 27 26 25 27 26 26 25 25 24 23 20 16 14
37 34 37 37 34 34 29 27 28 25 23 28 32 32 30 34 31 30 29 23 28 21 31 26 21 30 29 28 27 27 27 26 26 26 26 29 27 26 24 23 21 19 19 18
36 33 34 30 33 28 27 22 25 28 31 35 35 34 32 32 31 32 28 29 26 30 27 23 30 30 28 28 28 28 28 28 27 27 29 31 29 26 26 24 22 21 19 18
36 33 26 29 26 26 30 32 33 34 36 36 36 35 32 35 31 34 27 30 27 24 22 22 31 30 32 31 30 28 29 30 30 30 30 28 27 25 23 23 22 19 17 17
34 30 26 28 31 32 34 37 37 38 39 37 35 35 31 30 30 28 25 24 20 21 25 31 32 34 33 33 33 31 29 29 29 30 27 26 24 23 21 21 20 19 17 16
31 33 31 33 33 32 33 34 36 39 39 38 34 30 28 27 27 23 23 19 20 29 30 32 33 33 33 33 31 31 30 29 28 27 26 24 23 21 21 20 18 16 16 17
29 32 33 34 33 32 33 38 37 40 37 33 29 27 24 28 23 21 25 29 30 31 31 31 33 32 32 33 32 30 30 29 28 27 25 23 23 20 18 16 15 16 16 16

GFSNW_sfc_dewp_123.txt.gz
Dewpoint
43 44 44 45 46 48 47 43 35 45 46 34 34 33 36 35 31 33 32 34 25 24 24 21 22 21 23 18 20 15 21 21 17 16 17 16 14 14 19 16 13 16 17 17
43 43 44 45 46 47 45 38 35 44 43 31 30 33 34 35 33 32 36 33 24 23 22 20 22 25 27 25 21 21 22 18 16 16 19 22 25 28 28 27 24 18 17 17
43 43 43 44 45 47 44 35 29 34 37 36 33 30 32 33 35 34 36 30 22 22 23 24 21 24 28 28 26 31 28 23 20 14 17 20 19 19 24 29 25 19 19 18
42 42 43 44 44 45 44 38 32 32 27 31 34 34 32 32 34 32 33 32 22 22 20 21 19 24 26 27 31 25 24 19 19 21 21 18 20 18 18 21 22 20 20 24
43 42 43 43 43 44 42 35 34 31 31 31 34 35 35 33 34 33 26 26 22 21 21 21 19 21 26 24 26 25 25 20 19 15 21 22 21 22 21 21 23 23 24 24
44 43 42 43 43 44 40 42 35 31 31 30 31 30 31 34 34 35 28 27 23 23 23 23 23 23 23 28 26 26 23 21 16 16 22 25 19 20 23 23 26 27 25 25
44 43 43 43 43 44 42 41 35 35 28 29 30 30 32 33 36 30 33 27 26 27 27 26 26 24 22 26 26 28 25 22 23 19 22 17 20 29 28 28 28 27 26 26
43 43 43 43 43 44 41 44 39 35 30 30 30 30 30 32 35 35 33 28 30 29 26 27 23 24 24 25 26 30 30 26 20 19 20 22 25 26 27 25 26 27 26 26
42 43 43 43 43 44 42 41 44 39 32 30 31 30 31 30 33 32 34 35 34 30 27 27 21 21 24 22 24 29 30 29 23 24 22 19 26 26 28 29 22 30 28 25
42 43 43 43 43 43 43 41 43 41 37 36 35 31 30 35 32 29 31 32 31 31 28 26 24 23 23 23 23 26 28 28 24 22 22 24 26 27 29 22 21 29 27 26
41 43 43 43 43 43 43 40 46 43 36 37 40 39 33 35 30 27 32 30 30 30 27 26 25 25 26 30 30 26 25 23 23 24 23 20 28 26 25 27 30 30 28 27
41 43 43 43 43 44 44 39 45 48 39 37 41 41 39 37 32 35 32 31 31 33 28 27 28 28 29 29 28 28 25 26 24 26 23 27 29 28 31 31 30 28 27 26
42 43 43 43 43 44 43 40 44 43 39 36 36 37 39 39 38 37 32 34 31 34 35 34 33 28 31 28 26 27 28 30 26 24 25 28 28 29 31 31 29 27 26 24
41 43 43 43 44 44 43 41 46 43 38 33 35 39 37 36 38 36 36 34 36 37 38 32 31 30 33 28 29 29 28 28 26 24 26 26 28 30 29 29 28 26 25 24
43 43 44 44 45 45 43 42 46 43 38 33 34 35 35 36 38 38 39 37 35 35 32 31 29 31 30 29 28 26 29 24 23 20 26 25 26 29 29 27 27 26 25 23
43 44 44 44 44 44 43 37 44 45 37 33 29 37 35 35 35 36 36 37 36 36 34 31 32 33 31 25 23 29 32 32 30 27 28 28 29 28 28 27 27 26 24 23
43 44 44 44 46 45 40 37 41 44 38 34 31 32 33 33 35 35 35 36 37 35 34 30 31 31 31 29 20 26 32 28 30 29 29 28 27 27 27 26 26 26 23 22
45 44 44 45 45 43 37 40 43 41 35 34 29 30 29 32 30 28 33 30 31 30 31 31 30 30 29 20 29 26 28 30 28 28 28 27 28 28 29 26 24 22 21 20
44 45 45 42 39 36 37 40 41 43 35 30 30 27 25 31 30 30 30 30 26 28 26 28 30 26 23 25 29 27 28 29 28 28 26 27 28 28 29 26 21 18 17 14
45 43 35 33 37 39 41 40 35 35 33 33 29 30 29 32 30 28 27 28 26 23 26 29 25 23 31 32 30 29 28 28 28 26 25 26 26 28 29 26 21 17 14 13
38 36 34 38 41 39 37 32 30 31 28 33 30 29 30 33 27 27 29 25 25 21 25 24 23 23 27 30 29 29 29 28 27 26 27 27 27 28 30 28 23 18 16 14
37 36 40 40 37 34 27 26 28 26 24 29 28 29 32 32 32 28 28 24 25 18 28 21 17 29 29 29 29 28 27 27 27 28 27 27 28 30 31 29 22 19 18 17
38 36 33 31 29 22 20 18 25 25 28 29 29 28 31 32 32 28 26 20 19 28 16 19 25 28 28 29 29 28 29 28 28 29 30 32 32 31 28 22 21 20 17 15
33 28 20 24 23 24 29 28 27 29 31 32 31 29 29 28 27 26 17 25 25 16 13 23 29 29 30 29 29 28 28 29 28 27 29 28 25 24 23 22 21 18 16 16
30 29 22 24 29 31 32 33 32 32 32 32 30 30 30 26 23 25 23 20 13 19 21 28 30 31 29 30 29 27 27 27 27 26 24 23 23 22 21 21 19 18 16 15
31 31 26 29 30 32 33 33 31 35 32 31 30 26 21 22 24 22 17 20 18 26 28 30 31 32 32 30 27 27 28 27 26 25 24 23 22 21 19 19 18 16 15 14
30 30 32 31 32 32 32 34 32 35 31 25 28 21 22 26 21 21 25 22 27 28 29 30 31 32 32 30 27 26 27 26 25 23 22 21 21 19 18 15 15 16 15 13

GFSNW_sfc_dewp_126.txt.gz
Dewpoint
45 45 45 45 46 47 46 42 34 45 46 35 33 32 35 36 34 34 32 34 31 24 25 22 21 21 24 21 19 14 19 19 15 14 18 17 17 16 19 16 13 15 14 14
44 44 45 44 45 46 43 38 36 44 44 31 31 34 33 34 34 32 33 34 33 29 23 20 24 23 27 25 21 20 20 18 15 14 18 24 23 27 27 27 22 16 11 13
44 44 44 44 45 46 43 36 30 35 38 35 31 30 31 31 35 34 34 35 35 27 21 25 23 24 27 29 27 33 28 21 18 12 14 21 19 19 19 25 20 20 18 13
43 43 43 43 45 45 43 37 31 32 29 31 33 31 30 30 31 34 34 34 34 27 22 25 23 27 25 27 30 24 23 17 19 21 21 21 20 19 19 18 19 22 17 21
43 43 43 43 43 44 40 33 32 32 29 31 33 33 31 29 30 32 32 33 35 32 24 22 23 25 24 23 26 24 24 18 17 11 21 22 20 20 20 22 22 21 21 25
42 43 43 43 43 43 38 40 39 31 30 30 31 30 28 32 34 35 32 33 31 25 23 24 23 26 27 27 25 24 22 20 15 13 21 23 21 22 21 21 22 21 20 24
42 43 43 42 43 42 40 38 39 33 27 29 29 28 31 31 33 30 34 35 31 29 27 26 25 24 27 27 27 27 24 22 21 20 20 15 20 28 28 26 27 27 26 26
42 42 43 43 42 43 37 39 39 35 27 29 29 30 29 31 33 34 31 33 34 29 27 26 22 23 22 24 26 27 28 24 20 17 20 20 25 26 27 25 24 27 26 26
42 42 42 44 43 43 39 38 43 40 32 29 29 30 31 29 30 32 33 36 34 31 27 25 20 20 21 21 22 26 28 26 21 22 19 16 23 30 29 28 18 28 27 24
41 42 42 43 43 43 41 37 40 39 34 34 33 30 30 32 31 29 32 33 32 32 27 25 23 22 24 22 22 27 25 25 21 21 20 22 27 27 29 16 18 29 26 25
41 42 42 43 43 43 42 37 43 38 36 35 39 40 32 34 32 29 31 29 30 28 26 25 24 25 27 27 29 27 26 24 24 25 22 17 28 26 24 26 30 29 27 27
41 42 42 43 43 43 43 35 44 43 38 36 39 39 41 38 34 32 31 29 30 30 28 28 29 27 29 27 25 32 26 26 22 23 22 26 28 28 30 31 29 28 27 27
41 42 42 43 43 43 42 37 43 42 37 35 35 36 40 41 38 35 31 32 33 32 34 34 33 28 30 27 28 30 32 31 27 25 27 27 28 29 31 30 28 27 27 25
41 41 42 43 43 43 42 38 43 40 38 32 35 38 40 42 41 37 37 35 35 35 36 34 33 29 33 28 31 31 28 28 26 24 23 26 26 27 28 27 26 25 25 24
43 42 42 43 43 43 41 40 44 43 39 32 34 36 37 41 39 37 38 36 35 35 33 30 29 31 30 28 29 27 29 25 23 22 25 25 22 27 28 26 24 24 23 21
42 42 43 43 43 43 40 34 41 44 43 33 29 38 37 38 39 38 38 36 37 37 33 30 31 32 28 21 22 27 30 30 29 26 28 27 27 27 27 26 25 24 23 22
42 43 43 43 43 41 35 34 39 42 43 32 30 31 36 38 37 38 36 38 38 36 33 30 30 29 30 23 18 25 27 28 29 29 29 28 27 27 27 27 26 26 23 22
43 43 43 43 43 41 39 42 42 43 38 34 26 30 33 38 33 29 34 30 33 31 33 31 29 29 26 20 20 25 27 28 28 28 27 28 28 27 26 26 25 23 22 21
43 43 43 42 39 36 40 42 45 44 35 29 28 26 26 34 31 31 30 30 29 30 27 29 28 25 23 24 25 26 27 27 27 27 28 27 26 27 28 29 28 24 21 20
43 41 36 33 39 43 43 40 36 34 34 32 28 30 27 30 29 29 28 29 26 23 25 29 25 23 29 31 29 29 28 29 28 25 26 27 27 27 28 29 28 25 19 13
40 34 34 40 44 40 35 31 30 29 27 29 28 29 29 33 29 28 28 25 26 22 24 24 22 22 26 30 29 29 29 29 28 27 27 27 27 28 29 29 29 20 15 14
36 38 41 41 37 32 26 24 27 25 25 28 28 29 30 32 31 27 27 24 24 17 25 20 16 23 29 29 28 28 29 29 28 27 27 27 28 30 31 30 26 19 18 19
38 35 31 30 26 20 18 18 24 22 28 30 30 28 31 31 30 27 25 18 18 25 13 17 20 26 30 30 29 29 29 29 29 28 27 29 31 32 31 26 24 22 20 19
31 27 21 24 19 24 27 27 27 29 31 31 30 29 29 27 27 24 16 22 24 13 11 19 23 29 29 29 29 28 28 29 29 29 30 29 27 25 24 23 23 21 18 17
29 28 22 22 29 31 32 32 29 29 30 29 29 28 27 25 21 23 21 16 11 17 17 27 27 30 27 29 29 28 25 25 27 27 24 23 23 23 21 22 22 21 18 17
30 30 25 30 31 32 31 29 32 33 29 29 28 24 19 19 22 21 15 18 15 19 27 30 31 30 30 29 29 27 25 24 22 23 22 23 22 21 20 20 20 19 18 16
30 29 32 31 32 31 32 33 32 33 29 23 26 18 20 24 20 23 27 18 17 28 28 29 31 31 30 29 27 24 22 21 20 22 22 21 20 20 19 16 17 18 18 16

GFSNW_sfc_dewp_132.txt.gz
Dewpoint
47 47 46 46 46 47 47 42 33 44 47 36 35 33 35 37 33 34 33 32 32 29 24 22 21 20 21 25 22 16 19 21 15 13 18 20 16 14 18 15 12 15 16 15
47 47 46 45 45 46 43 38 36 44 44 31 32 34 34 34 34 33 32 31 32 31 25 25 24 24 28 28 21 18 21 17 15 15 17 20 16 18 19 24 23 13 12 15
46 47 47 45 45 46 43 36 31 36 38 35 32 30 31 32 35 34 34 34 34 28 25 26 23 21 26 29 30 32 28 20 19 14 16 19 19 21 24 22 17 14 16 17
46 46 46 46 44 45 41 37 32 31 29 33 32 30 29 30 30 34 34 32 34 31 28 22 21 24 23 24 27 24 24 17 19 20 19 19 19 19 21 20 18 17 16 18
44 45 46 46 44 45 39 33 33 30 29 31 31 32 28 28 28 32 31 31 33 30 28 26 24 25 22 19 24 22 23 21 17 13 18 19 19 21 20 20 20 20 19 18
44 44 44 46 45 43 37 38 36 32 29 29 30 28 28 28 30 31 32 32 32 32 33 35 32 28 28 28 26 25 26 24 21 17 19 20 16 18 19 20 21 19 16 19
44 44 43 41 45 43 39 37 39 34 27 29 28 28 28 29 29 26 32 32 31 31 30 27 27 28 27 29 26 27 22 23 21 18 19 11 17 24 24 24 25 24 22 24
43 44 43 42 45 44 36 39 38 34 27 27 28 29 28 28 29 31 30 31 35 32 32 30 25 23 22 24 26 25 25 24 20 18 16 18 17 23 26 25 24 27 26 26
43 42 43 43 44 44 36 36 41 38 29 28 28 28 28 27 27 28 31 34 35 34 28 30 25 23 25 21 23 26 25 25 21 20 17 12 17 27 28 26 18 27 27 25
42 43 43 43 43 43 39 35 39 38 32 35 32 28 28 30 29 27 30 31 30 31 27 26 25 22 23 19 20 23 22 20 18 20 19 21 23 28 27 16 17 28 28 25
42 43 43 43 43 43 41 36 39 36 34 35 38 37 31 32 30 27 29 30 32 28 29 28 27 23 24 23 24 24 22 20 19 21 21 16 28 27 22 24 28 28 26 24
42 41 43 42 41 42 41 35 39 39 34 34 38 38 38 39 34 31 32 29 31 31 28 27 26 22 23 23 19 28 23 23 23 24 22 27 29 27 28 29 28 27 26 25
42 42 41 41 42 43 40 38 40 37 33 31 30 30 40 43 42 40 31 31 32 31 31 29 28 24 26 23 22 27 28 29 26 26 27 28 28 29 29 29 29 28 26 24
41 42 41 41 42 42 41 39 39 36 34 25 28 37 36 37 41 43 39 33 35 34 34 29 29 26 30 23 27 26 27 30 28 26 29 27 28 29 29 28 28 27 25 24
40 41 41 41 42 42 41 40 39 39 33 26 27 37 38 39 43 42 41 38 35 34 32 32 30 31 32 32 32 29 30 29 29 26 29 28 27 26 29 27 26 26 24 23
40 41 41 41 41 41 40 33 40 40 38 33 29 38 37 40 42 40 38 37 39 38 35 34 34 36 32 26 27 28 32 30 29 28 28 27 27 26 27 26 26 26 25 23
41 41 41 41 41 40 36 32 37 41 40 34 29 28 38 40 41 39 40 41 40 38 35 31 30 30 32 21 20 28 27 27 30 29 28 26 26 24 26 26 25 26 23 22
41 41 41 41 41 42 37 40 41 41 38 37 28 28 32 40 36 35 39 37 39 37 35 31 29 29 25 24 26 26 29 29 28 28 27 27 27 26 25 25 23 22 21 20
41 41 42 41 39 35 36 43 43 43 38 31 30 26 26 39 35 36 35 36 31 35 30 31 29 26 24 27 25 26 28 28 27 27 26 26 26 25 25 24 22 21 20 20
41 40 35 31 37 43 43 41 35 35 35 35 27 29 30 36 33 32 32 32 30 28 29 30 26 26 28 27 27 26 28 28 27 26 26 26 26 25 25 24 23 23 23 24
38 33 33 37 43 38 33 30 30 31 29 32 30 30 31 35 30 30 30 28 27 21 24 27 25 23 26 29 28 28 29 28 27 27 27 27 26 26 27 27 26 26 25 23
37 37 39 39 36 33 29 28 30 29 28 28 29 29 31 32 34 32 30 25 24 19 25 22 17 22 28 28 28 28 29 28 27 27 27 27 27 29 29 28 27 25 24 22
35 35 33 30 29 14 18 17 21 17 25 26 28 27 30 31 30 27 26 20 20 25 20 19 20 23 28 27 28 28 28 28 27 26 27 27 27 29 28 25 24 23 22 21
27 24 14 18 11 16 18 21 20 24 25 28 27 26 29 28 27 25 21 22 23 15 13 17 17 25 26 27 27 27 26 28 28 28 27 24 28 28 25 23 23 22 20 20
26 24 16 20 25 26 31 27 25 25 28 28 27 27 28 26 23 24 22 20 17 17 15 16 28 25 30 29 29 28 27 22 19 19 23 28 26 25 20 22 23 21 19 19
28 28 28 30 30 30 30 29 22 28 27 28 28 25 22 21 22 19 14 18 14 13 22 28 25 28 29 29 29 28 27 28 27 27 26 25 23 19 17 21 21 20 19 19
28 28 31 32 31 30 30 22 25 29 28 24 25 17 17 23 18 20 21 13 13 25 27 30 30 29 29 28 27 26 25 22 23 23 22 17 18 19 19 17 17 19 20 19